GFSNE_sfc_dewp_000.txt.gz
Dewpoint
39 39 37 37 38 38 37 37 35 32 30 30 38 41 44 45 45 42 39 41 41 43 42 40 43 41 41 40 41 43 44 45 45 46 46 46 48 49
38 37 37 36 35 36 36 36 36 34 31 32 29 30 30 30 39 41 38 43 41 41 40 37 38 39 40 40 41 42 42 42 44 46 45 42 42 43
35 35 34 34 34 33 32 29 28 29 27 26 28 28 30 33 30 30 35 38 38 40 38 38 39 39 39 38 38 37 39 41 43 44 46 43 41 41
32 32 31 29 29 29 28 27 27 27 26 23 25 26 25 27 29 32 30 26 32 38 39 39 38 38 38 38 37 37 38 39 40 42 43 45 44 43
25 25 26 27 26 26 27 26 26 23 25 24 23 25 25 26 26 28 28 31 30 35 39 38 39 39 39 38 37 37 37 38 40 40 41 41 42 43
25 23 23 24 26 27 26 26 24 23 22 22 22 22 23 24 26 23 25 27 28 24 29 32 37 38 39 37 37 38 38 39 39 39 39 39 39 40
22 21 22 26 30 28 22 23 23 22 22 21 21 21 22 23 24 27 27 28 29 31 30 30 30 34 35 38 36 38 38 38 39 39 40 40 39 39
20 20 21 25 25 29 30 29 27 22 20 19 19 19 20 21 24 25 26 25 24 28 28 27 30 30 32 34 35 36 36 38 39 38 39 40 39 38
19 20 20 19 25 23 27 27 27 29 29 24 21 21 21 21 22 22 23 24 24 27 26 25 26 27 29 27 36 34 34 34 34 37 38 37 38 37
20 20 20 21 24 24 23 23 23 23 24 24 25 25 25 24 25 26 27 27 27 27 27 25 26 26 28 29 33 35 34 34 34 34 35 37 37 37
21 22 23 22 24 25 24 24 24 23 25 27 28 29 29 29 29 27 25 25 24 26 26 24 23 25 25 26 29 34 34 33 35 35 36 37 37 36
23 23 23 24 27 27 27 27 25 25 24 25 24 24 24 28 32 31 28 23 22 21 23 23 24 25 25 26 28 30 27 33 34 34 36 37 37 34
21 21 23 29 27 24 23 24 23 23 23 23 22 21 23 23 24 25 29 30 24 22 25 26 28 26 28 25 24 27 30 30 30 33 35 35 36 35
22 25 25 25 24 24 24 25 25 24 22 22 23 24 25 25 26 26 27 30 32 28 28 30 30 26 25 25 25 27 28 29 30 31 31 34 35 35
23 24 25 25 24 25 26 24 25 24 25 24 23 24 26 27 27 28 30 31 31 31 31 30 30 28 27 26 26 25 25 28 32 34 31 31 29 32
21 22 25 23 23 24 25 24 25 26 24 24 24 25 27 27 28 29 30 29 28 27 30 31 30 29 28 27 27 25 24 25 28 34 34 31 30 35
21 22 20 19 20 22 21 22 23 23 23 23 24 25 26 26 27 26 29 26 27 26 26 28 30 30 29 28 26 26 26 25 27 32 32 31 31 33
21 19 18 18 18 20 20 20 21 22 21 23 23 24 24 25 25 26 30 27 23 23 26 28 31 30 28 27 30 27 24 25 27 29 32 31 30 30
18 18 18 16 16 16 17 18 19 21 21 22 23 23 24 24 26 25 26 26 25 28 24 31 28 27 25 22 26 29 27 26 28 25 27 27 30 32
16 16 15 16 16 15 16 17 19 20 19 20 22 23 22 24 25 23 24 26 26 27 28 25 23 24 25 24 26 22 29 27 28 26 27 30 27 30
14 13 15 16 16 16 16 17 18 20 18 18 19 22 23 24 23 23 24 21 22 24 22 23 22 23 25 25 23 23 20 25 25 25 26 26 28 26
15 14 15 16 16 16 15 16 16 16 17 17 17 19 21 23 23 23 23 23 23 22 23 24 25 24 25 24 24 19 21 21 23 25 25 24 22 22
13 15 15 15 15 14 14 14 14 14 14 15 15 17 20 20 22 23 21 23 22 19 18 23 23 25 23 21 19 22 15 19 23 22 20 24 24 25

GFSNE_sfc_dewp_003.txt.gz
Dewpoint
37 37 38 37 36 36 37 38 36 31 29 31 32 34 38 41 43 45 47 46 43 42 43 39 43 41 40 40 41 43 45 47 47 47 46 45 46 48
35 36 36 37 39 39 38 37 35 33 30 30 30 31 31 29 38 40 40 45 43 41 41 38 38 39 39 39 40 40 41 42 43 44 45 43 40 41
35 35 34 34 34 37 37 35 34 33 29 26 28 28 27 27 28 32 38 37 42 42 40 37 37 38 39 38 37 36 38 40 40 41 42 44 42 40
28 27 27 24 26 28 30 30 28 28 28 24 25 25 25 26 28 29 30 26 37 40 39 38 39 39 38 38 37 37 37 36 37 39 40 40 42 44
25 24 23 23 22 24 26 27 27 24 24 23 23 24 23 24 23 25 26 29 28 37 39 39 38 39 39 38 38 37 37 38 38 39 39 39 39 40
24 23 22 22 22 25 25 26 25 22 21 21 22 22 23 23 25 26 27 28 28 27 31 36 38 39 39 38 38 38 37 38 38 39 39 38 38 39
22 21 21 23 26 28 25 25 23 21 21 20 20 20 20 22 22 26 24 26 26 30 28 29 30 32 34 36 38 39 39 39 39 39 39 38 38 38
19 19 21 23 25 27 30 29 28 23 20 19 18 18 18 20 22 22 23 23 22 28 27 25 27 27 30 32 36 36 35 36 36 38 39 39 38 38
19 20 19 18 23 24 25 26 25 26 27 25 22 22 21 22 21 20 21 21 22 25 26 25 26 25 27 27 34 32 32 32 34 34 34 37 37 37
22 21 21 23 26 23 22 22 23 24 24 23 24 25 25 25 24 23 27 27 25 26 27 23 24 23 26 27 32 35 34 33 33 33 34 34 34 37
23 22 21 20 23 26 25 25 25 24 25 25 26 29 30 31 30 29 26 24 21 22 25 25 23 21 22 24 27 33 34 34 35 35 34 34 35 35
22 21 22 23 29 28 25 23 21 20 22 23 23 23 23 24 24 28 27 26 24 18 21 21 21 23 21 23 24 26 26 31 33 35 35 35 35 34
20 21 23 23 25 25 25 24 23 23 24 22 21 21 21 22 23 25 25 26 25 25 25 25 23 24 23 23 23 24 23 26 28 31 34 36 36 35
21 22 23 27 23 23 25 27 23 24 21 21 21 22 23 24 25 27 28 28 28 27 27 27 28 25 25 23 22 25 22 24 24 28 28 32 35 36
22 23 25 22 23 24 25 25 24 25 24 22 22 23 25 26 26 26 27 29 30 30 31 31 31 30 28 26 22 23 23 26 23 24 26 28 31 25
21 22 23 22 22 24 23 23 23 23 22 22 22 24 26 27 27 28 27 27 28 26 28 30 31 31 29 28 27 25 26 25 23 24 31 31 30 30
21 19 19 18 18 20 20 20 21 22 21 21 22 23 24 25 26 27 27 27 26 22 25 27 30 30 30 28 26 27 27 24 24 24 28 25 30 29
19 18 16 16 16 16 17 18 19 20 20 21 21 23 23 23 24 26 26 24 24 25 22 24 25 28 28 28 30 28 25 25 23 25 24 28 28 25
16 15 14 13 14 15 15 16 16 20 20 19 20 21 22 23 23 22 21 21 21 25 28 27 29 27 25 21 25 30 28 25 24 22 21 22 28 27
15 14 13 12 14 15 15 16 16 18 17 18 18 19 21 21 19 21 20 19 22 25 24 23 22 21 19 18 20 15 27 22 23 21 20 22 28 29
14 14 15 13 14 14 13 13 12 14 14 14 15 17 18 21 20 17 19 19 18 23 21 21 21 21 22 21 21 17 17 25 21 18 20 21 22 26
5 13 14 14 12 13 10 10 12 12 12 12 12 14 16 19 19 19 18 19 16 15 18 19 24 25 23 21 18 17 15 14 21 25 25 23 20 20
2 6 10 10 10 10 13 11 10 8 9 10 10 12 13 15 17 20 16 16 20 14 15 20 22 22 21 20 17 20 12 11 19 18 17 23 25 26

GFSNE_sfc_dewp_006.txt.gz
Dewpoint
34 34 35 36 36 37 38 36 33 28 30 30 31 34 35 37 38 39 42 45 45 44 44 45 45 45 41 39 40 42 44 45 47 47 46 46 46 47
34 34 34 35 35 35 36 36 35 33 29 31 30 29 31 28 32 35 39 41 44 44 43 43 42 43 40 38 39 39 40 41 43 44 46 44 41 40
30 28 27 27 27 28 29 30 33 34 32 29 29 27 25 25 25 27 34 37 41 41 41 42 41 40 40 38 37 36 36 38 39 39 40 43 44 43
25 25 24 21 22 23 24 24 26 26 28 28 25 24 23 25 25 26 27 27 39 37 41 41 41 39 39 38 38 37 36 36 36 37 37 37 38 40
23 23 23 22 20 21 22 24 25 24 25 23 22 24 23 24 23 27 26 27 26 35 34 40 40 39 39 38 38 38 37 37 36 37 37 38 38 39
23 23 22 21 20 22 23 24 24 24 23 22 22 21 22 22 25 25 24 25 25 27 31 32 34 37 39 39 39 39 38 38 38 38 38 38 37 38
22 21 20 21 22 23 25 30 27 25 22 20 20 20 19 19 19 23 22 23 23 28 28 28 28 28 32 34 36 39 38 38 38 39 39 38 37 37
19 20 20 21 22 24 25 26 25 25 25 25 20 18 18 19 21 21 20 20 19 26 26 25 27 26 28 31 36 36 35 36 36 37 38 39 38 38
21 21 20 18 23 24 25 25 24 25 25 25 23 22 21 21 21 21 20 20 21 24 26 24 26 24 26 26 33 33 32 33 33 33 33 36 37 37
23 22 21 21 21 21 21 25 25 25 24 23 23 23 24 24 24 23 23 24 26 27 26 21 24 22 25 26 30 34 34 32 33 33 34 33 33 34
22 21 21 21 24 26 26 23 22 21 22 24 26 27 28 29 29 27 26 25 22 22 24 23 22 19 20 21 25 30 33 34 34 34 34 34 34 34
21 20 21 21 23 26 26 24 21 20 21 21 22 23 22 23 23 24 25 24 24 20 22 21 20 21 18 20 22 23 23 30 33 35 35 35 35 32
19 19 21 24 24 22 23 24 24 25 24 24 22 21 21 21 22 23 24 23 22 22 25 24 23 22 21 21 21 23 22 22 23 29 33 35 36 35
20 21 23 22 23 24 24 25 24 24 23 21 21 20 21 22 24 25 26 27 26 25 25 27 25 24 21 18 21 23 21 21 20 25 25 30 32 34
21 22 20 21 22 23 22 24 24 22 21 19 21 23 24 25 26 26 26 27 29 29 30 29 30 27 26 24 20 22 21 22 19 21 21 23 25 24
21 21 21 21 20 21 21 22 22 22 21 20 21 23 25 26 26 27 26 27 26 26 29 29 30 30 28 28 28 25 24 23 21 22 30 30 30 31
15 16 17 16 16 16 16 18 20 21 20 21 21 22 23 25 25 27 27 27 24 22 24 26 28 28 29 28 27 26 25 23 21 23 24 24 24 27
13 12 10 11 14 15 13 14 16 18 19 19 19 20 21 22 23 25 25 22 23 23 22 26 27 28 29 27 30 27 27 27 23 23 26 25 26 23
9 10 8 10 9 15 14 14 13 16 18 17 18 18 19 21 22 22 19 17 19 23 23 21 25 28 25 21 23 29 27 27 25 18 21 27 27 23
9 9 9 11 13 14 13 12 12 11 11 14 14 15 16 19 18 18 18 16 19 22 22 20 19 22 19 16 17 15 25 25 27 25 25 24 26 29
8 9 7 10 12 12 8 8 7 8 8 9 11 13 14 17 17 19 17 14 14 19 18 17 19 21 21 21 16 14 13 25 21 14 15 13 15 20
2 7 7 8 7 9 6 5 7 3 7 8 9 10 11 14 16 17 15 13 14 11 15 17 21 24 21 19 15 11 14 12 20 25 25 22 16 15
-1 3 1 -0 1 5 9 6 5 3 5 6 7 8 8 11 14 15 14 13 14 12 14 17 18 20 21 20 15 18 12 9 21 17 13 22 25 25

GFSNE_sfc_dewp_009.txt.gz
Dewpoint
32 32 32 33 32 33 33 33 32 26 23 28 30 32 34 36 34 34 37 42 44 44 44 45 46 46 45 45 41 40 44 46 48 49 48 47 46 46
33 31 28 30 28 29 28 30 31 30 26 30 29 30 29 24 27 30 32 40 40 42 41 42 43 45 45 45 44 40 41 43 45 47 47 44 42 41
26 25 25 25 25 25 26 25 25 26 25 26 31 30 25 26 25 29 29 30 39 39 38 39 41 43 43 44 43 41 38 41 42 42 44 45 45 44
23 23 23 19 21 22 22 21 22 23 25 23 28 25 24 24 25 27 25 23 28 35 38 38 38 40 42 40 39 39 39 36 36 39 40 40 39 41
23 22 22 21 20 19 20 21 23 23 24 23 23 24 25 24 22 27 24 25 22 30 34 35 36 38 41 40 39 38 38 37 36 36 36 36 38 38
23 23 22 21 20 20 20 26 28 28 26 24 22 22 22 21 23 23 22 24 22 23 28 32 33 33 36 39 39 39 38 37 37 37 37 37 36 37
22 21 21 22 23 21 20 22 23 26 25 25 24 21 19 19 18 22 20 21 21 26 26 26 28 30 29 33 36 39 39 38 38 38 37 36 36 37
21 21 21 23 22 22 23 24 23 25 25 23 23 24 24 20 20 20 20 19 17 24 25 24 26 25 26 27 34 36 37 37 38 37 37 38 38 37
23 23 21 18 21 21 23 23 23 25 25 24 23 23 21 21 21 21 20 20 20 22 25 23 25 24 25 24 30 34 34 34 34 34 34 34 35 36
21 20 21 20 23 21 25 24 25 22 23 24 25 23 23 23 23 22 22 22 23 25 25 21 22 21 25 26 29 31 34 33 33 33 33 33 33 33
20 20 20 20 22 26 26 24 23 22 22 22 22 23 26 29 28 26 23 23 22 21 24 23 20 19 18 20 25 30 32 32 33 34 34 34 34 33
20 19 21 21 24 23 23 23 21 20 21 21 22 23 23 22 23 24 24 24 24 20 22 22 21 19 16 19 19 21 21 29 32 33 34 35 34 31
19 19 21 23 23 24 24 24 24 24 23 23 23 22 21 21 21 22 23 22 20 20 23 23 22 20 19 20 19 21 21 21 22 27 29 34 34 34
20 21 22 20 21 23 22 24 24 23 21 21 21 21 21 21 23 24 24 24 24 22 23 25 22 23 20 16 18 21 19 20 19 23 24 29 32 34
20 21 19 18 19 20 20 22 22 21 20 19 19 21 23 25 27 27 27 27 28 28 27 27 28 25 23 22 19 18 19 21 16 20 19 20 24 22
17 16 18 19 18 17 17 18 20 20 20 20 20 21 24 25 26 27 26 26 25 25 28 30 29 28 27 27 26 24 22 25 18 19 21 28 29 30
8 6 12 14 14 15 14 14 16 17 17 18 18 20 21 23 25 27 27 27 23 22 23 23 29 29 28 27 27 26 25 25 22 21 24 22 22 24
9 3 -2 3 10 14 12 11 12 13 14 16 16 17 18 21 23 24 25 23 23 23 24 25 27 28 28 27 30 27 26 26 25 27 25 25 22 23
4 2 -4 -2 7 13 12 12 10 9 12 13 14 14 16 18 20 21 21 21 21 21 20 19 24 27 25 21 23 29 27 28 28 26 26 26 26 22
6 3 0 0 6 12 12 11 10 6 3 8 11 12 12 15 17 18 19 16 18 21 20 20 18 21 16 13 18 18 26 25 26 26 25 22 23 27
6 7 1 2 4 7 4 6 2 2 1 1 4 9 10 12 14 17 16 15 14 17 17 16 16 19 20 17 14 9 11 24 21 13 15 14 14 22
1 6 6 3 0 0 -4 -1 4 4 5 5 3 4 6 10 13 14 12 7 12 11 13 16 19 22 19 18 12 4 14 15 21 24 24 20 15 12
2 4 0 -4 -6 -5 2 -3 0 0 5 4 5 5 3 7 10 10 11 10 12 11 12 15 17 18 19 19 13 12 13 11 21 18 13 21 24 25

GFSNE_sfc_dewp_012.txt.gz
Dewpoint
32 32 32 32 31 29 31 29 28 22 18 23 28 32 33 35 33 33 34 38 43 43 42 42 42 43 46 45 44 41 41 46 49 53 54 52 50 49
32 31 27 28 27 28 26 27 27 24 20 24 23 29 31 30 29 33 32 33 40 40 39 40 40 40 42 46 46 43 40 44 48 48 48 47 46 45
27 25 24 24 24 25 24 23 22 23 20 19 23 25 27 30 27 30 30 30 33 38 39 39 39 39 39 42 44 44 41 44 45 48 48 46 44 45
24 23 23 20 21 21 21 19 20 21 21 21 23 24 26 27 25 27 26 25 26 35 36 37 38 38 38 41 42 42 41 40 38 41 44 46 47 46
23 23 22 22 20 20 19 20 21 22 26 26 25 25 24 26 24 25 27 26 21 24 34 34 35 37 37 39 41 40 40 39 37 37 38 39 41 42
24 23 23 22 21 20 21 20 21 22 22 23 24 24 24 24 23 23 22 24 21 18 26 32 32 32 35 37 39 40 39 39 38 38 37 36 37 38
23 23 22 24 26 23 19 20 21 22 22 23 22 21 24 23 19 21 20 20 21 23 26 26 27 30 31 33 36 39 39 38 38 38 38 36 36 37
24 23 23 22 22 22 22 23 22 21 22 23 21 21 21 24 26 24 20 19 16 23 25 24 26 25 28 30 33 36 38 37 37 37 38 38 37 37
22 19 18 17 21 21 23 23 24 26 28 27 23 22 23 24 21 21 21 20 19 21 24 23 25 24 25 25 29 32 34 36 36 36 37 37 37 37
20 19 19 19 21 20 23 25 22 23 23 22 22 24 25 26 23 22 22 21 22 23 26 23 24 24 24 26 28 31 33 34 33 33 33 33 33 35
19 19 19 20 22 25 23 23 21 20 21 23 23 23 23 24 27 27 24 23 20 18 25 24 23 24 23 25 27 28 32 32 34 34 34 34 33 33
21 20 21 20 22 23 25 22 21 20 21 23 23 23 23 23 23 22 23 23 24 21 22 23 21 21 21 23 25 25 27 27 31 33 34 34 34 33
20 19 21 22 20 20 21 22 23 23 22 22 22 23 23 22 21 21 22 22 21 21 23 24 22 22 22 23 25 26 27 28 29 27 28 33 35 34
19 20 20 20 18 18 18 21 22 21 21 20 20 20 22 23 23 24 23 23 23 21 21 25 23 23 23 21 22 25 26 26 26 26 28 27 30 34
18 18 18 17 18 18 17 18 20 19 19 18 19 20 22 24 25 27 26 25 26 26 24 25 25 25 25 23 23 23 25 26 25 27 27 28 30 30
14 13 14 18 14 16 16 16 16 18 18 18 18 20 22 24 25 27 26 26 25 25 28 29 28 28 26 26 25 23 25 25 26 26 27 29 30 30
7 4 8 10 12 14 14 13 13 13 14 16 16 17 19 21 24 27 27 27 25 25 26 27 29 30 29 28 27 27 26 26 26 26 28 27 28 29
8 2 -4 -5 4 12 12 12 11 9 10 14 15 15 15 18 21 23 24 24 24 24 25 25 28 27 27 28 31 27 27 26 27 28 27 27 27 27
5 2 -5 -7 -1 10 12 11 10 9 9 10 12 13 14 16 18 19 21 21 21 23 23 24 25 27 24 22 25 29 28 28 29 28 28 27 25 26
7 4 1 1 5 9 10 10 9 7 6 6 7 10 11 14 15 17 18 18 18 19 19 21 22 22 23 23 23 25 27 27 26 25 26 26 27 28
7 8 3 4 6 6 -1 -1 1 6 4 3 5 5 7 11 13 15 14 12 13 16 15 16 19 21 22 23 21 21 21 23 23 24 23 23 22 23
5 7 8 6 4 3 -4 -8 -2 -1 6 6 5 4 5 7 10 11 12 11 12 13 13 16 20 21 22 22 19 16 20 21 23 24 24 22 23 21
6 6 5 1 -2 -3 3 -1 -1 -1 -0 5 6 7 4 7 8 9 9 11 11 11 11 14 15 18 20 20 19 18 19 19 22 22 22 22 24 25

GFSNE_sfc_dewp_015.txt.gz
Dewpoint
34 34 32 31 33 31 29 28 26 23 19 19 19 22 22 23 26 29 33 34 34 42 41 42 42 42 44 46 46 44 41 44 49 51 54 54 55 53
30 32 32 29 28 29 27 27 26 24 21 17 16 18 19 17 24 26 29 33 33 37 39 39 39 40 41 43 45 46 43 43 47 48 53 53 53 51
31 30 28 27 24 24 24 21 19 18 18 17 16 18 22 24 23 24 29 31 32 36 37 38 39 39 39 41 43 44 45 43 46 49 49 50 50 49
27 26 25 22 24 23 22 21 19 19 17 15 17 21 22 25 26 26 27 23 28 32 34 35 36 37 38 39 41 43 43 42 44 46 48 48 48 48
25 25 25 24 23 23 21 20 20 18 19 20 18 18 20 23 25 27 31 29 24 25 30 33 33 34 36 37 39 41 41 42 39 40 42 44 46 47
26 25 25 24 23 21 21 23 20 21 19 18 18 17 18 19 24 23 25 25 23 18 22 29 30 32 31 36 37 40 41 40 40 38 37 37 39 41
25 22 22 23 24 22 19 20 20 19 20 19 17 17 18 17 21 26 24 23 22 23 21 22 24 27 32 34 37 38 40 39 39 39 38 36 37 38
18 18 17 18 18 21 21 22 22 21 22 20 23 17 15 17 18 25 25 24 20 23 22 19 23 22 26 29 31 37 39 39 39 38 38 37 37 37
17 15 14 14 19 17 19 21 24 25 25 25 23 18 17 17 19 20 21 21 20 21 21 17 20 21 22 20 28 34 37 38 38 38 37 37 36 36
16 16 16 17 17 19 23 21 18 17 18 20 23 23 20 20 20 22 22 20 20 20 22 21 19 25 22 24 28 30 34 35 37 37 37 37 36 36
17 17 18 17 20 24 21 20 16 15 20 21 23 25 26 25 23 23 25 24 22 16 17 19 19 24 26 27 28 26 31 34 34 34 34 34 34 34
19 17 19 20 21 20 20 20 18 18 17 18 18 19 21 21 23 23 20 22 24 21 17 19 18 20 22 28 30 30 29 28 31 33 33 34 33 28
17 16 18 20 19 18 18 19 21 21 20 19 17 17 17 18 20 21 21 20 20 19 23 23 21 21 22 25 28 30 30 30 31 28 32 33 34 32
19 17 20 18 17 17 16 18 18 20 21 21 21 20 21 21 21 23 24 23 22 20 20 24 23 21 21 22 21 26 30 31 31 26 30 29 30 34
21 18 17 17 16 14 15 16 16 18 19 19 19 20 21 23 25 26 28 26 24 24 22 23 24 22 22 21 21 24 26 28 33 31 32 31 30 32
19 17 17 16 15 15 15 15 16 15 16 18 19 20 23 25 27 29 28 28 26 25 26 28 27 27 26 24 23 24 25 26 29 30 32 32 32 34
18 18 16 15 14 12 14 13 13 12 14 17 19 19 20 22 24 28 28 29 27 28 28 30 31 32 30 29 27 25 26 26 27 29 30 29 30 31
17 17 17 16 15 12 13 13 13 10 11 15 17 18 19 21 21 23 25 27 27 27 28 28 30 29 30 31 30 29 30 27 28 29 29 28 27 29
19 17 18 17 15 12 11 11 11 11 12 14 16 17 18 19 21 21 22 22 23 23 25 27 28 29 26 26 28 30 29 28 29 29 29 28 27 29
18 18 18 18 16 12 11 11 11 12 10 12 15 16 17 18 19 19 20 20 20 19 20 21 23 24 25 27 28 30 27 31 30 30 27 29 30 28
20 18 19 18 17 15 16 15 14 13 12 12 14 14 16 16 17 18 19 17 17 16 16 18 21 23 25 28 28 28 30 24 27 29 28 27 25 25
23 21 19 19 19 18 18 17 15 15 12 12 12 15 15 15 15 16 17 17 16 16 15 18 21 24 25 24 23 25 26 28 26 24 24 25 27 24
25 23 23 22 21 19 17 17 14 15 13 11 12 13 14 13 13 15 16 16 14 14 15 17 19 21 23 22 22 24 23 25 26 26 28 24 25 25

GFSNE_sfc_dewp_021.txt.gz
Dewpoint
37 34 31 29 29 28 26 24 26 27 22 22 23 24 23 24 27 27 27 30 33 33 33 35 38 40 40 40 40 41 43 45 46 47 48 51 54 55
36 31 29 29 30 27 24 25 24 27 24 21 21 22 23 18 24 27 26 31 31 33 33 34 37 36 38 39 40 40 41 44 46 46 45 47 49 53
34 29 30 29 28 26 27 24 23 23 22 22 20 22 23 24 22 25 25 27 26 31 33 34 35 36 37 37 38 39 40 42 44 46 45 46 46 50
28 29 28 24 27 26 23 22 22 22 20 19 20 22 22 22 23 23 21 18 23 25 35 35 34 35 36 36 36 38 39 40 43 44 44 44 45 47
29 27 27 27 26 22 22 21 20 16 21 23 22 22 22 21 21 22 20 24 19 29 36 37 36 35 35 36 35 37 39 39 41 42 42 40 43 46
30 29 27 24 21 22 19 19 18 20 20 20 19 17 19 20 23 23 22 24 22 20 29 37 34 34 35 35 35 37 37 37 39 41 40 40 41 44
27 24 22 21 19 20 18 19 19 18 18 17 18 20 20 21 23 22 22 21 22 26 29 34 35 29 27 32 32 35 36 37 38 40 39 40 41 43
23 21 20 23 22 22 22 22 22 19 21 23 21 16 15 19 22 25 25 21 16 25 29 28 31 29 25 23 29 33 36 37 38 40 38 39 39 40
21 19 17 14 21 20 22 23 23 25 26 24 22 20 21 22 21 23 23 24 21 21 24 26 27 24 24 20 30 30 34 36 37 38 38 38 39 38
22 21 20 19 20 21 19 18 17 15 15 12 16 18 19 18 17 17 19 19 21 20 22 20 21 22 25 25 28 26 32 36 36 39 40 39 39 38
22 21 19 17 21 21 19 18 15 15 17 21 19 21 23 24 23 24 22 20 23 18 21 25 22 24 28 28 31 30 30 36 35 38 39 38 37 37
22 21 20 18 19 19 20 19 18 15 13 14 17 19 21 21 25 23 21 22 21 21 23 27 22 18 21 26 29 33 33 35 35 35 36 35 37 35
22 21 21 20 19 19 19 19 20 17 17 19 21 19 20 22 23 24 25 26 25 20 22 23 22 22 21 24 30 31 33 35 36 35 35 34 34 35
24 23 24 22 19 18 17 16 17 18 23 21 22 21 22 23 23 25 26 24 26 25 21 27 26 22 29 26 24 28 30 34 36 36 36 36 34 33
26 24 22 21 19 19 16 16 19 19 18 20 21 21 21 23 24 29 30 33 26 27 23 24 27 26 23 23 22 26 26 28 36 35 37 36 34 34
26 26 24 23 22 21 21 19 19 19 16 17 20 21 24 24 25 27 29 30 31 26 25 25 25 25 23 23 23 24 26 26 31 32 36 35 36 37
25 26 24 23 21 20 19 19 19 18 16 17 19 21 21 21 22 26 27 29 30 30 30 25 25 26 26 24 28 25 26 27 29 33 31 31 32 33
23 23 24 26 23 21 20 19 19 18 17 15 17 17 18 20 21 23 24 25 26 26 27 31 29 26 26 29 30 28 27 27 27 29 29 29 29 33
23 23 26 26 24 20 19 17 17 18 19 18 17 18 18 18 21 22 22 23 22 23 23 27 28 30 27 24 28 31 29 32 30 29 29 30 29 31
24 23 24 25 23 20 19 18 19 20 19 17 19 19 19 17 19 17 20 21 20 21 20 23 26 22 24 26 29 29 28 32 32 31 30 32 32 28
25 25 28 25 23 22 24 24 23 22 21 20 19 19 21 18 16 16 18 18 19 17 17 18 21 24 25 28 29 28 29 27 28 31 33 30 28 27
28 26 26 25 26 25 26 26 24 24 22 20 20 20 20 19 18 16 18 17 15 16 14 18 23 24 24 24 28 27 27 28 26 26 26 26 28 27
31 29 30 31 31 28 24 24 23 22 21 20 19 19 19 18 19 18 16 15 14 13 13 16 20 26 26 22 24 28 26 26 26 25 27 26 26 26

GFSNE_sfc_dewp_024.txt.gz
Dewpoint
37 38 36 36 34 32 32 29 27 24 22 23 24 25 26 25 27 25 26 29 32 33 33 34 34 32 32 35 38 40 40 41 41 44 44 45 47 50
38 38 37 35 32 32 30 29 27 26 23 22 22 24 25 22 25 25 24 28 30 31 32 32 34 35 34 35 37 38 39 40 41 42 44 43 45 47
36 36 36 33 31 30 30 28 25 25 22 21 21 23 22 23 23 24 25 23 24 30 32 32 34 35 37 36 36 36 37 39 40 42 43 45 44 46
31 32 31 27 29 29 27 24 23 22 20 18 21 22 22 23 23 23 22 20 22 26 31 32 36 37 38 37 37 37 37 39 38 40 42 43 43 43
31 31 30 29 27 25 24 21 21 19 22 21 19 21 21 22 21 22 23 25 23 27 27 33 35 36 38 37 37 37 36 38 37 38 40 41 40 42
31 30 29 26 22 21 18 19 18 20 19 19 18 19 19 20 22 23 22 23 23 22 26 31 34 36 37 36 36 37 37 36 37 37 39 40 39 41
29 27 25 23 22 20 17 19 20 20 19 18 18 19 20 19 18 22 24 24 24 24 28 31 31 34 35 35 34 35 35 36 36 37 39 39 39 41
25 23 22 25 25 25 25 24 23 20 19 20 21 20 19 21 23 23 22 21 20 25 24 25 29 29 32 34 34 34 34 34 35 37 38 39 39 39
24 22 20 17 25 22 23 22 22 24 24 22 21 21 24 22 20 18 18 18 19 20 21 19 23 24 25 22 31 32 33 34 35 37 38 38 38 38
23 23 21 21 22 21 20 19 19 18 17 16 17 16 18 19 20 20 20 20 21 20 21 18 22 25 24 26 32 31 32 34 35 37 38 39 38 38
24 23 22 19 22 21 20 19 17 17 18 19 18 20 23 25 25 23 22 21 20 20 22 23 24 26 25 26 27 30 32 34 35 36 39 39 37 37
25 23 22 20 19 19 20 20 18 18 16 14 18 21 22 23 26 29 27 23 22 21 23 25 26 28 21 25 27 28 27 34 33 35 37 38 36 36
25 24 25 21 22 21 18 20 19 18 18 19 20 20 23 23 23 24 26 28 26 25 25 23 25 24 25 26 31 31 31 31 34 34 34 36 37 37
25 25 25 23 23 21 20 20 19 20 19 18 20 20 21 22 23 24 26 30 32 28 26 27 25 25 25 26 28 31 30 29 31 34 32 35 36 34
25 26 25 24 25 23 23 21 19 19 18 13 16 20 21 23 24 24 25 27 28 31 26 26 26 25 25 24 23 26 29 29 31 34 34 32 33 33
25 26 24 23 21 21 21 23 23 22 19 16 15 18 22 22 22 23 23 25 26 29 29 27 25 25 24 24 23 22 23 26 32 30 34 34 34 34
22 21 21 23 22 22 22 21 22 22 19 16 14 17 19 20 20 22 24 24 24 24 28 29 26 25 26 25 21 23 22 23 30 32 28 29 30 31
21 19 17 19 21 21 18 19 18 18 19 17 16 16 17 18 18 20 23 23 22 22 23 26 30 26 25 25 28 24 28 24 24 27 27 25 25 29
20 19 19 20 24 22 20 19 16 17 17 19 15 16 16 17 18 19 20 22 21 20 22 24 27 25 24 24 29 29 25 30 27 22 23 24 22 30
24 23 22 22 22 21 20 19 18 16 16 16 13 19 15 15 15 17 18 18 19 19 20 21 24 22 21 23 26 27 29 28 29 22 21 23 25 29
25 25 24 23 25 22 20 18 18 15 14 10 15 18 18 18 17 14 17 16 16 17 15 17 21 24 25 26 25 26 25 27 27 26 31 28 24 23
25 25 24 24 25 24 22 20 18 15 21 18 16 12 17 12 14 17 12 15 16 17 16 16 21 25 27 27 26 25 26 22 26 27 27 25 22 21
27 27 27 26 27 26 23 22 19 17 16 15 16 14 11 9 18 17 18 14 16 15 13 14 19 22 26 24 24 26 21 21 23 23 22 27 27 28

GFSNE_sfc_dewp_027.txt.gz
Dewpoint
38 38 36 36 37 36 34 30 29 23 22 23 24 25 27 25 26 26 25 28 32 32 31 31 30 30 31 32 33 34 34 37 39 40 41 42 44 45
37 36 37 37 37 36 32 29 27 27 22 23 22 23 23 22 24 25 25 28 29 31 31 33 33 31 31 32 34 33 35 36 36 38 40 42 43 44
35 36 35 36 35 33 30 27 25 23 20 20 21 23 22 23 23 25 25 24 24 29 31 32 32 33 34 35 36 36 35 35 36 37 39 41 42 43
31 30 30 28 27 27 25 21 20 20 20 19 19 20 21 22 23 22 21 22 23 27 31 31 31 32 35 35 36 37 37 37 36 38 38 39 41 43
31 30 28 27 25 23 21 19 19 19 20 19 18 20 21 21 21 22 23 24 24 26 27 29 31 32 34 34 35 37 37 37 38 38 38 38 40 41
31 29 28 23 20 19 17 17 18 19 19 19 18 18 19 21 22 21 22 25 24 22 25 28 31 30 31 34 35 36 37 36 37 36 37 38 39 39
27 26 23 22 24 20 17 18 20 20 20 19 18 19 19 20 20 25 22 21 20 21 23 26 25 28 30 33 35 36 36 36 35 35 36 38 39 38
24 22 21 24 25 26 25 24 23 21 20 19 20 19 19 21 25 21 19 17 15 20 22 20 23 23 24 31 32 35 36 36 34 35 36 38 39 38
23 21 21 23 23 21 21 20 20 21 21 21 18 17 16 18 19 18 18 19 19 19 20 19 21 20 24 23 30 32 33 34 34 35 36 38 38 37
23 22 21 21 22 21 20 19 19 19 18 16 17 15 16 19 21 21 21 21 21 22 22 19 21 21 25 26 29 30 33 33 34 34 37 38 37 36
24 23 23 20 21 20 20 19 18 18 18 20 19 22 23 25 24 25 25 25 20 19 22 21 21 23 24 26 27 29 32 34 32 33 36 39 37 36
24 23 23 20 20 20 21 18 18 17 18 17 18 20 22 23 26 24 23 23 23 22 22 23 22 23 21 24 26 26 27 33 32 33 36 37 37 37
25 24 23 22 22 23 22 20 19 20 20 19 19 19 20 22 22 23 24 25 25 24 27 27 23 22 23 24 27 31 28 31 31 34 34 36 36 36
24 24 24 26 24 24 24 23 23 22 14 16 17 17 20 20 21 23 24 25 25 27 31 29 25 23 21 23 25 29 30 29 32 32 32 33 35 37
24 24 27 25 25 26 26 26 23 19 14 9 13 16 18 20 22 23 23 23 26 27 26 30 26 25 25 23 23 25 26 28 32 32 32 32 32 32
23 24 23 24 21 21 21 23 22 20 18 13 12 15 18 19 19 21 20 23 23 23 26 30 28 26 23 23 24 24 25 23 31 32 32 32 32 32
18 18 20 18 20 22 20 20 20 19 16 12 11 13 16 18 18 19 20 22 21 21 22 24 30 28 25 25 19 21 22 22 27 31 31 32 32 32
26 16 13 11 15 20 18 18 15 15 16 15 10 13 13 14 17 18 20 21 20 20 21 25 25 26 25 26 26 23 21 26 23 27 29 28 30 32
15 16 12 13 15 21 20 18 15 14 14 14 11 9 11 14 14 17 18 18 18 19 21 24 23 18 15 18 27 29 21 26 27 23 25 25 27 30
20 19 18 18 20 21 20 18 16 12 12 12 7 4 5 9 10 13 15 14 16 18 17 18 19 21 19 17 22 23 29 21 27 20 21 25 26 29
23 23 22 22 22 22 22 18 11 8 7 4 4 6 6 10 8 14 12 13 14 16 15 14 17 22 26 24 21 22 20 28 27 23 26 22 21 21
24 24 25 24 24 24 25 21 15 10 8 7 7 4 1 4 5 7 8 8 15 16 14 14 17 23 27 27 24 20 23 17 24 27 29 27 22 17
26 26 26 25 25 22 22 21 20 18 15 13 10 6 -1 5 6 10 8 13 13 15 13 13 16 20 23 22 25 24 20 19 22 22 21 27 28 29

GFSNE_sfc_dewp_030.txt.gz
Dewpoint
36 36 37 36 37 37 38 37 34 25 23 23 23 24 25 25 25 26 24 27 28 28 29 29 29 30 30 30 31 33 33 34 35 34 38 39 40 41
36 36 36 36 37 37 34 31 29 28 25 23 21 22 23 20 23 23 25 27 27 28 29 29 29 30 30 30 31 32 34 36 35 34 35 36 38 39
33 34 36 35 35 34 31 26 24 22 20 20 21 22 21 21 22 24 24 23 24 27 27 28 29 29 31 30 31 33 35 36 36 36 36 37 37 38
31 31 31 32 29 27 25 21 20 20 19 18 19 19 19 20 21 22 21 21 24 25 26 26 26 29 32 33 34 34 34 34 36 36 36 36 36 37
31 30 29 28 26 24 21 19 19 19 20 19 18 19 19 20 20 22 22 23 24 24 23 23 24 29 29 29 30 33 34 36 36 37 37 37 37 36
31 29 27 25 21 20 18 17 18 19 19 19 19 18 19 20 22 21 22 23 21 18 20 22 24 27 25 27 28 33 34 36 36 37 37 37 36 37
26 24 23 23 25 21 18 18 19 19 19 19 19 19 18 19 20 21 23 19 18 19 19 22 22 23 25 26 27 31 31 36 35 35 34 35 35 37
24 22 21 24 26 26 25 24 21 19 18 19 19 17 17 16 18 18 19 17 17 20 21 20 22 22 23 25 27 30 30 30 35 35 34 35 36 37
24 21 20 23 24 21 21 20 19 18 18 20 17 17 15 15 16 18 19 20 20 21 21 21 21 21 22 21 26 28 30 32 33 35 35 35 36 37
24 22 22 21 22 21 19 18 18 18 18 17 18 17 17 20 22 23 24 25 24 23 23 20 20 20 22 24 28 30 31 32 34 34 34 33 34 37
25 24 23 21 23 23 20 19 18 18 17 20 20 22 22 23 24 25 22 22 19 20 22 23 21 21 22 24 26 30 31 33 33 34 32 33 34 37
25 23 24 22 24 22 22 20 17 16 17 18 18 19 20 21 24 23 23 21 21 19 22 25 23 22 20 22 24 24 28 31 33 32 32 33 36 37
25 24 23 25 24 24 24 21 18 19 20 21 18 18 18 20 20 22 23 23 22 21 23 27 26 24 23 22 23 27 31 31 30 31 33 34 36 36
25 25 24 25 26 26 25 25 25 24 17 16 16 17 17 17 19 20 22 23 24 24 25 28 28 24 21 20 22 27 29 30 32 31 33 33 34 34
25 25 25 27 27 26 27 27 23 20 14 9 15 15 16 18 20 20 21 22 23 25 24 29 29 26 25 23 22 23 24 27 31 32 32 32 32 32
25 25 24 24 21 21 21 23 22 20 18 15 12 13 16 17 17 19 19 21 22 21 23 25 27 29 24 24 23 22 24 25 26 30 32 32 32 32
25 20 20 19 21 22 20 21 20 18 16 11 11 12 14 16 17 18 19 20 18 18 20 22 25 28 27 24 19 21 23 24 24 29 31 31 31 32
25 23 22 19 19 20 18 18 16 15 17 15 10 12 11 11 15 18 18 17 17 18 19 22 21 20 22 24 27 22 21 25 27 27 30 29 29 31
27 25 24 19 18 18 19 19 18 15 15 15 15 9 8 12 11 14 15 16 16 17 19 19 20 16 18 13 23 29 25 27 24 21 24 27 28 29
25 23 20 18 18 19 19 18 18 13 13 13 9 3 -1 7 7 10 13 7 13 16 16 15 16 17 19 18 19 23 29 21 24 25 20 27 28 29
26 24 22 21 20 21 21 18 15 14 13 7 6 5 -1 7 6 8 7 9 8 15 13 12 15 20 23 25 17 19 22 28 29 27 22 24 24 22
27 26 25 24 23 22 22 22 18 18 16 10 6 2 -2 1 3 3 3 9 11 12 14 14 17 22 25 25 21 16 23 16 22 27 29 26 20 18
29 27 27 26 25 25 24 23 22 21 20 17 13 9 -1 3 4 2 5 14 12 11 13 14 15 18 21 23 23 20 23 18 18 19 19 27 28 29

GFSNE_sfc_dewp_033.txt.gz
Dewpoint
36 36 36 37 36 36 37 37 35 28 25 24 23 24 24 24 23 24 24 26 27 26 26 28 29 29 30 31 31 32 33 33 34 34 35 36 38 39
35 34 35 36 37 36 35 33 33 29 24 24 21 21 22 20 21 22 23 26 26 27 27 27 27 29 30 30 30 31 31 32 33 34 35 38 37 37
33 32 33 35 35 34 33 29 26 26 24 20 21 21 20 20 20 22 24 23 24 26 26 27 27 27 27 28 30 31 31 33 34 34 35 37 37 38
30 31 32 34 33 29 27 24 21 20 19 17 18 19 19 19 20 21 21 21 23 25 26 24 24 24 24 26 31 30 31 32 33 34 34 36 37 37
30 30 29 28 26 26 23 21 19 18 19 19 19 19 19 19 19 21 22 22 23 24 22 22 23 24 25 26 28 28 28 31 32 35 36 36 37 36
31 30 29 27 25 22 20 19 17 18 19 19 19 18 19 19 21 21 18 20 19 18 20 22 23 24 26 26 26 27 27 30 32 34 36 36 37 37
28 26 24 23 25 22 18 17 19 19 19 18 17 17 18 17 17 16 16 17 19 20 20 20 22 23 24 26 26 27 27 29 30 30 34 36 36 36
24 23 21 26 27 28 26 25 22 19 18 17 17 17 15 16 16 16 17 18 17 20 21 21 23 22 23 24 26 27 28 28 29 30 31 34 36 35
24 22 21 20 26 25 26 23 21 21 20 18 17 16 17 16 17 18 20 20 21 22 23 20 21 20 22 21 26 28 30 31 31 32 34 34 35 35
25 23 22 21 24 21 20 19 19 19 18 16 17 18 18 19 20 21 25 24 23 22 22 20 20 21 22 23 26 29 30 31 31 33 34 34 35 34
25 24 23 22 24 26 22 20 19 19 17 20 20 22 22 22 21 21 20 20 17 18 20 22 22 22 23 24 25 27 30 30 31 33 33 35 33 32
25 25 28 24 25 26 22 21 19 18 16 17 19 20 20 20 21 21 21 19 18 17 20 21 21 24 22 22 22 24 24 29 31 32 32 32 32 31
25 24 24 27 26 26 25 22 20 20 20 20 21 19 18 18 18 19 21 21 19 18 21 24 24 23 25 22 21 22 25 28 30 32 31 32 33 34
25 25 25 27 27 26 26 26 26 24 19 18 16 17 17 17 17 19 20 21 22 22 23 24 25 26 24 21 19 22 26 28 28 30 32 34 35 35
29 26 27 27 28 27 28 28 24 20 15 9 16 15 16 16 18 20 20 20 22 23 23 24 25 26 27 24 23 23 22 26 28 27 29 32 32 32
29 28 27 27 25 25 22 25 22 21 19 16 14 13 15 16 15 18 18 19 19 20 21 23 24 25 26 25 25 22 23 23 26 27 30 32 32 32
29 26 25 24 23 23 21 22 20 19 16 12 10 11 15 15 15 17 17 16 12 16 19 21 22 22 23 26 21 21 22 24 26 27 30 30 31 32
27 23 23 23 23 22 21 21 17 16 18 16 9 12 13 11 13 16 17 13 13 15 17 19 19 19 20 21 28 25 23 24 26 27 29 29 28 30
28 24 24 24 23 22 21 20 19 18 16 15 14 12 10 10 10 12 13 13 13 15 16 17 17 17 16 15 20 29 25 25 25 22 25 27 28 28
30 27 26 26 25 22 21 20 19 16 12 13 11 10 8 6 7 9 10 5 10 15 15 14 14 16 17 17 15 20 28 26 25 25 23 27 28 28
27 28 26 25 24 23 22 21 19 15 10 6 11 12 6 8 6 7 5 7 6 15 13 12 13 19 23 23 14 17 21 27 29 28 24 25 24 23
28 27 26 25 25 24 23 22 19 15 12 13 12 12 8 6 6 4 -1 3 11 10 13 14 16 19 24 24 21 14 22 19 23 27 29 27 21 20
29 28 28 28 27 26 24 22 21 20 19 17 16 15 8 6 7 3 1 7 11 9 11 11 15 16 18 23 23 21 20 18 19 19 21 28 29 29

GFSNE_sfc_dewp_036.txt.gz
Dewpoint
37 37 35 36 36 36 35 35 36 29 27 26 26 26 24 24 23 24 23 25 27 27 27 28 28 29 29 30 32 33 32 33 34 34 36 37 37 37
35 34 34 35 35 35 35 35 36 33 28 27 24 23 22 19 22 23 22 26 26 27 27 27 28 28 28 28 29 29 30 32 32 32 33 34 36 36
33 34 33 33 35 34 33 32 30 30 28 26 23 21 20 19 20 21 23 23 24 26 26 27 27 26 26 26 27 27 28 31 31 32 32 33 34 35
32 31 33 34 33 32 31 28 25 23 20 18 18 19 19 20 20 20 20 20 23 24 26 26 24 25 25 25 26 26 28 30 30 30 32 32 34 35
30 30 30 29 29 28 26 24 21 19 20 19 18 20 20 19 18 20 21 22 21 23 22 23 24 26 26 26 27 27 27 28 28 29 30 32 33 36
31 31 30 29 28 26 24 22 19 18 19 19 19 18 18 18 20 19 16 17 17 17 21 23 25 26 26 27 27 28 28 27 27 28 30 32 33 35
30 30 30 29 30 25 20 20 18 18 19 19 17 16 15 16 15 17 16 17 19 20 20 20 23 24 25 26 26 27 28 28 29 29 29 31 32 35
27 26 24 27 29 31 30 24 20 20 19 17 16 15 14 15 18 17 18 17 15 21 21 21 22 23 23 25 26 27 28 28 30 31 31 30 32 33
26 25 23 20 26 24 28 29 26 25 22 20 17 16 16 17 17 18 19 19 20 21 22 20 21 20 21 21 26 27 28 29 31 31 32 33 34 34
25 25 23 22 23 24 23 22 20 19 19 18 17 16 18 19 19 19 21 21 21 20 20 18 19 21 23 23 26 27 28 29 30 30 30 32 34 34
24 25 24 23 25 28 23 21 19 19 21 22 21 22 23 23 22 21 19 19 17 16 18 19 20 21 23 24 26 27 28 28 30 30 31 32 33 35
25 25 29 25 27 28 26 22 20 19 19 16 16 19 21 20 22 20 18 18 18 15 20 20 19 22 22 24 25 26 26 27 29 29 30 33 31 31
26 25 26 28 30 28 28 23 21 21 21 18 18 21 21 20 19 18 19 20 19 16 19 22 20 21 23 24 25 26 27 28 29 29 29 31 33 32
26 26 27 28 31 29 28 27 26 25 22 21 20 21 20 19 18 17 19 21 21 21 22 23 22 22 23 22 23 24 26 28 28 28 30 31 32 33
28 28 29 30 31 30 29 28 26 25 22 20 19 19 18 18 17 19 20 20 19 20 19 23 24 24 23 23 24 24 24 25 27 28 29 31 32 32
29 30 30 29 29 30 27 29 28 25 23 21 19 17 16 17 18 19 18 19 18 18 18 21 23 23 21 21 24 24 24 23 26 27 29 31 33 33
25 30 29 27 26 26 26 26 26 24 21 19 16 16 16 16 17 18 18 18 16 16 17 18 20 20 21 22 24 24 23 24 26 28 29 30 32 31
29 28 25 26 25 25 25 24 24 23 22 20 17 16 16 15 15 16 17 16 15 16 16 17 19 18 19 20 27 24 23 24 27 27 28 28 28 30
29 29 26 26 24 25 25 24 23 22 21 20 19 16 15 14 14 15 16 15 15 16 16 17 16 16 16 15 19 27 24 25 25 26 26 28 28 29
28 27 27 27 26 25 25 24 24 22 19 18 16 14 12 14 13 14 15 12 13 15 16 14 14 15 16 17 18 21 26 25 27 27 25 27 28 28
26 27 28 28 27 27 26 25 24 22 18 14 16 13 11 13 12 13 13 8 9 15 15 13 14 18 22 23 18 20 25 27 28 27 27 26 25 25
29 28 27 27 27 26 25 25 24 22 18 15 14 14 13 13 13 12 10 10 14 15 14 14 14 16 20 23 22 19 23 24 25 26 28 28 25 24
22 25 28 26 28 27 26 25 24 22 21 19 18 15 14 14 14 13 11 10 13 14 12 12 14 15 16 21 22 23 22 23 23 22 23 27 29 29

GFSNE_sfc_dewp_039.txt.gz
Dewpoint
41 41 39 37 38 37 37 36 35 30 25 27 28 31 30 28 25 25 24 24 25 27 27 28 29 30 30 30 30 31 32 32 33 33 34 37 37 38
39 38 38 36 36 36 36 36 36 35 30 26 26 29 28 21 21 24 22 23 23 25 27 27 28 29 29 29 29 29 30 30 31 31 33 34 35 36
37 37 36 37 35 35 37 36 35 34 29 24 26 26 25 22 21 21 19 18 18 22 24 26 26 27 27 26 27 27 28 29 29 30 32 35 35 36
35 35 35 32 36 36 35 35 32 31 28 23 23 21 21 22 21 20 14 14 18 20 23 25 25 25 26 27 27 27 28 28 28 29 30 32 32 32
34 34 34 34 34 33 33 32 30 27 26 24 20 19 20 20 18 16 15 18 14 19 20 22 23 25 26 27 28 28 29 29 29 28 28 29 30 31
35 35 34 34 33 32 30 30 28 26 23 20 18 18 18 18 17 12 14 14 14 14 19 21 24 25 26 27 28 28 29 29 29 28 27 30 30 30
35 34 34 34 35 33 29 28 25 22 20 18 18 18 17 16 12 14 14 14 16 17 18 19 19 20 21 24 25 27 27 29 29 29 29 29 31 31
32 33 33 33 34 33 31 29 25 23 22 20 18 17 17 15 13 15 16 15 13 17 17 16 18 18 19 21 24 26 27 28 29 29 30 31 31 33
32 32 30 25 28 26 29 31 28 26 25 24 21 19 20 14 15 15 15 15 15 16 17 16 17 17 19 18 26 26 27 29 29 30 30 30 32 32
33 32 31 30 28 25 24 25 25 25 24 21 21 20 17 16 18 19 20 19 16 16 16 14 17 19 20 22 26 27 29 29 29 29 30 30 30 31
31 30 30 29 29 28 25 24 23 22 23 24 24 24 21 24 24 22 20 18 19 13 15 17 17 18 21 23 25 26 28 28 29 28 29 29 30 32
31 30 30 28 29 29 28 28 25 21 20 20 19 19 21 20 23 23 18 19 18 17 15 18 16 18 19 20 24 27 29 29 29 29 29 29 30 31
30 29 30 30 30 30 30 30 30 25 23 22 19 16 18 20 20 20 19 18 19 16 16 18 18 18 20 22 23 27 29 29 30 28 28 29 29 30
31 31 32 31 30 30 30 32 31 27 27 26 24 22 22 22 20 19 19 20 20 18 18 19 21 21 21 21 21 24 27 29 29 28 30 31 32 32
34 33 32 31 30 29 31 32 31 30 29 28 25 23 23 22 20 21 21 20 18 19 16 19 21 20 21 21 20 22 26 26 30 29 33 32 33 34
31 32 32 30 30 31 31 31 32 31 30 28 26 24 24 24 24 23 22 20 19 18 18 19 19 21 20 19 19 22 25 23 27 28 32 32 34 32
32 32 32 32 30 29 29 31 31 31 29 29 28 25 24 23 23 23 22 20 19 19 20 19 18 18 19 19 22 23 25 25 27 28 30 31 33 32
32 31 32 31 30 27 27 27 29 29 28 28 28 26 25 24 23 22 21 20 18 17 17 18 19 20 20 22 25 24 24 24 26 28 30 30 30 32
29 31 32 32 31 28 26 26 28 28 29 29 28 27 26 24 23 22 22 20 19 17 17 18 17 20 19 20 21 22 25 25 26 27 29 30 30 31
30 30 30 31 29 28 28 28 27 29 28 27 27 28 27 25 24 23 22 21 19 16 16 15 14 16 19 20 21 25 25 27 27 26 27 30 31 29
19 23 31 31 29 30 30 30 30 30 29 28 27 26 27 25 24 23 22 18 18 15 14 15 13 17 19 25 22 24 30 28 29 28 28 27 27 26
17 18 19 21 31 31 31 31 30 30 29 27 27 27 26 25 24 23 24 22 18 17 16 16 13 16 20 22 23 25 27 29 27 28 27 28 27 25
14 14 16 18 20 23 23 28 29 29 28 26 25 26 26 24 24 24 25 21 18 17 16 15 13 16 18 21 22 24 24 26 26 26 27 26 27 27

GFSNE_sfc_dewp_045.txt.gz
Dewpoint
42 44 41 41 40 35 33 32 32 30 27 28 27 30 28 29 31 30 31 33 34 32 31 28 27 27 29 31 31 31 32 32 32 33 33 33 33 34
42 43 41 39 35 33 33 33 31 31 30 27 26 30 29 22 29 28 28 33 32 33 33 30 25 26 27 29 29 30 30 31 31 31 31 32 32 33
43 44 41 38 36 35 36 32 30 29 29 28 26 29 30 29 27 29 27 26 26 31 32 30 28 26 26 27 27 28 29 29 29 30 30 31 31 32
42 42 40 34 38 37 35 35 32 32 29 29 29 27 29 29 30 27 22 18 21 24 30 29 27 28 26 26 26 27 28 29 29 29 30 31 31 31
42 42 39 38 37 37 36 35 31 27 31 29 27 28 27 27 25 25 24 23 17 25 30 29 29 28 26 28 27 28 28 28 29 29 30 30 31 31
41 42 41 38 37 37 35 35 31 32 31 29 27 27 25 25 22 21 21 23 17 9 21 25 27 26 29 30 30 29 29 29 29 29 30 30 31 30
41 40 39 38 38 37 34 36 34 31 29 28 27 26 24 22 20 20 18 19 18 20 19 18 20 20 22 26 27 31 31 28 27 28 29 30 31 31
40 38 35 34 36 35 35 35 35 33 31 29 27 25 25 23 23 22 21 17 14 20 18 18 20 18 20 20 27 27 28 29 28 28 29 30 29 31
37 33 29 25 31 29 33 34 34 34 32 31 30 28 27 26 24 22 21 18 16 17 19 18 20 19 19 14 28 30 30 31 31 30 30 31 31 32
32 30 30 30 31 32 32 33 34 34 33 29 28 28 30 29 26 23 22 19 20 20 21 18 19 19 20 20 26 28 30 31 31 31 32 32 32 31
29 29 29 30 31 33 31 33 32 32 32 34 33 32 27 25 23 24 22 20 24 17 20 18 18 19 21 22 25 28 29 29 31 31 32 32 32 32
31 31 31 31 31 32 33 31 31 31 32 31 32 30 28 27 27 24 21 22 23 22 20 19 16 17 18 20 22 26 27 28 29 30 31 31 32 31
32 32 33 33 34 34 34 34 32 32 31 33 33 34 33 28 27 26 24 24 25 22 20 20 18 17 18 20 21 26 29 28 29 28 29 31 32 31
28 31 32 31 31 31 32 33 34 32 34 33 34 34 34 31 30 26 26 26 26 23 21 22 24 20 22 21 21 23 25 27 29 28 31 31 32 33
26 27 27 27 29 31 32 32 33 34 34 33 33 32 31 31 30 30 32 27 23 25 17 20 24 21 22 22 20 22 22 23 29 30 32 32 33 35
24 26 26 27 27 28 30 32 33 34 33 33 33 32 33 34 33 32 32 27 25 24 24 25 23 23 23 21 22 21 22 22 27 31 31 32 34 34
25 27 29 29 28 28 28 29 31 33 33 33 32 32 33 33 32 32 31 28 26 24 25 23 24 23 24 22 23 22 24 26 28 29 29 31 34 32
23 24 27 28 27 26 29 30 32 33 33 31 32 31 31 33 31 31 30 29 25 22 22 21 22 20 21 22 26 26 24 25 27 28 30 30 32 32
19 19 23 24 24 23 25 25 27 33 33 31 31 31 32 31 31 30 29 28 25 22 20 21 20 21 19 19 22 25 25 25 27 28 29 29 31 32
16 16 18 20 21 20 22 24 25 28 31 31 32 32 33 31 31 30 29 29 25 21 19 17 16 16 18 20 22 26 27 27 26 26 27 29 33 31
14 13 16 17 17 20 22 23 24 24 28 33 32 31 32 30 30 30 30 28 26 20 17 16 15 21 17 19 24 25 30 27 27 26 26 26 27 27
14 13 13 16 18 19 20 22 21 22 24 25 32 32 32 31 30 31 30 28 24 22 18 18 16 17 16 17 20 24 29 29 27 27 26 26 25 22
14 14 15 16 17 17 16 18 18 19 20 23 25 28 32 29 30 31 30 29 26 22 19 17 16 16 15 16 21 22 25 27 27 28 29 26 25 25

GFSNE_sfc_dewp_048.txt.gz
Dewpoint
42 43 42 42 43 41 39 37 35 32 31 31 32 32 32 33 36 35 33 38 37 36 34 33 31 29 28 28 29 30 31 32 32 32 33 33 34 33
43 42 42 42 42 41 37 37 36 34 31 31 30 31 30 27 32 32 30 35 35 36 36 36 35 29 27 27 28 28 30 31 31 31 31 31 33 34
44 44 43 43 41 38 38 37 35 34 31 31 32 30 31 32 28 32 33 29 29 35 35 35 35 32 29 28 27 28 29 30 30 30 30 30 31 32
43 44 42 40 39 39 38 36 35 34 32 30 30 30 29 29 29 29 28 22 24 30 33 33 33 32 32 31 30 29 29 29 30 30 30 30 31 31
43 42 41 41 40 39 38 36 35 33 33 31 30 31 30 29 28 28 26 26 25 30 33 33 33 33 32 32 31 32 32 30 30 30 30 30 31 31
41 41 41 41 41 39 37 36 35 35 34 31 30 29 29 28 28 24 23 25 23 18 24 26 30 30 32 34 33 33 33 33 32 31 32 32 32 30
41 41 40 40 40 38 36 35 34 34 33 32 29 28 27 27 25 24 23 22 22 22 20 21 22 23 23 27 28 32 32 34 34 32 29 31 31 31
39 39 39 39 38 37 36 35 33 32 32 32 31 29 27 27 26 25 23 21 19 22 19 20 21 20 21 23 28 29 29 31 31 30 29 29 31 32
39 38 38 30 32 32 32 33 34 34 34 32 31 30 29 29 30 27 25 23 21 21 19 19 21 21 23 17 28 29 29 31 31 32 32 32 32 32
37 34 32 31 32 32 31 30 30 31 33 33 33 33 32 32 32 29 27 25 21 21 20 18 21 21 22 23 28 28 29 30 30 31 31 32 32 32
32 32 32 32 33 34 32 31 30 30 30 33 35 35 33 32 30 28 26 25 23 20 21 20 20 20 21 21 22 27 29 30 30 30 30 31 32 32
31 30 31 31 32 33 32 31 31 32 34 34 31 32 32 31 30 29 26 27 26 23 22 21 20 19 18 19 22 23 24 27 29 30 30 30 31 30
27 26 27 29 29 28 27 24 26 29 31 32 33 32 33 34 31 29 28 27 25 24 24 25 21 20 19 20 21 23 25 25 26 26 29 31 32 32
23 24 25 27 27 27 27 27 28 29 31 29 29 32 32 34 34 30 28 26 26 25 25 25 24 22 19 19 19 22 22 24 26 24 27 31 32 32
23 24 24 25 26 26 28 28 26 26 27 28 28 29 31 33 35 34 32 29 28 29 26 25 25 23 22 20 20 20 21 22 24 26 28 27 27 32
22 21 22 24 25 26 26 27 30 30 30 29 30 32 32 30 31 33 31 31 30 29 26 25 25 24 22 22 21 21 22 21 24 26 26 26 30 31
19 21 22 22 21 21 21 23 24 25 25 31 30 31 29 27 31 31 31 30 28 25 25 26 26 26 24 23 21 22 22 24 26 25 26 26 31 27
20 19 18 18 19 19 19 20 21 21 23 24 31 30 28 29 30 32 31 28 27 26 25 24 24 23 23 23 25 23 25 25 23 26 27 28 28 28
17 17 15 16 16 17 18 18 19 20 20 22 28 27 28 27 27 29 30 29 28 27 26 24 23 20 15 13 23 27 22 24 26 23 24 26 27 30
17 15 15 15 15 16 15 16 17 18 18 19 22 27 23 26 24 28 28 28 26 26 24 22 22 21 18 15 13 18 27 21 24 24 22 26 30 31
14 13 14 14 14 14 14 15 16 17 17 19 20 22 28 28 25 25 28 28 27 28 25 21 22 19 21 19 11 15 22 29 26 22 21 21 23 25
14 13 13 13 13 13 13 13 14 14 14 17 18 19 21 24 25 22 26 29 27 27 26 23 22 22 21 19 17 12 23 26 27 27 26 24 19 16
11 13 12 12 12 12 12 11 12 12 12 15 15 17 17 17 20 24 26 29 28 26 23 21 22 21 20 19 18 17 20 25 27 26 24 27 26 26

GFSNE_sfc_dewp_051.txt.gz
Dewpoint
44 45 43 42 43 43 42 39 36 31 31 32 31 32 32 36 37 39 36 39 40 40 39 38 35 34 32 29 28 28 28 29 31 32 33 33 33 33
44 42 44 44 44 44 43 39 36 34 31 32 31 31 31 29 33 36 33 38 40 38 37 37 37 36 33 30 28 28 27 28 29 31 31 31 32 32
44 43 43 44 44 43 40 37 35 34 31 32 32 31 30 30 31 35 34 34 33 38 37 38 38 36 36 34 31 29 28 28 29 30 31 30 31 31
43 43 42 41 41 40 39 38 36 36 34 31 31 31 29 30 30 29 30 28 29 33 37 36 36 36 35 34 33 33 31 30 30 30 31 31 31 31
42 42 42 41 40 41 41 40 39 36 36 35 35 32 32 31 30 28 28 29 25 31 35 35 35 36 36 35 34 34 33 33 33 33 31 31 31 32
42 41 42 41 41 40 39 38 37 35 35 35 35 34 31 31 30 28 27 28 25 22 26 25 29 31 34 35 35 35 35 34 34 34 33 33 33 33
40 41 41 41 40 39 39 38 35 34 33 32 32 30 29 29 28 29 28 26 25 24 22 20 20 22 23 26 28 32 31 32 33 34 34 33 33 32
39 40 40 40 39 38 38 37 36 33 31 30 31 31 31 28 27 29 29 25 25 26 22 19 21 20 21 22 27 30 31 30 31 31 31 31 31 31
39 38 38 38 35 33 33 33 32 33 34 31 30 31 31 31 30 30 30 28 31 29 21 18 20 19 22 19 28 31 30 30 31 31 31 32 31 31
36 36 33 31 32 32 31 30 31 31 31 31 31 32 32 33 33 32 32 31 29 25 21 18 20 20 21 23 27 29 28 31 30 31 31 30 31 31
32 31 30 29 32 30 27 24 22 22 27 32 33 34 34 33 33 33 29 30 28 21 25 21 22 20 21 20 21 26 29 29 29 28 29 30 31 31
27 28 29 28 29 28 24 22 22 22 21 23 26 29 30 31 34 33 32 27 28 26 27 22 21 20 17 19 20 22 22 25 27 29 28 29 31 28
24 24 24 26 25 24 26 26 25 26 27 26 27 27 27 28 32 31 31 32 30 28 26 26 22 19 19 20 21 23 21 23 23 24 26 28 28 31
23 24 24 23 23 26 27 28 29 29 28 27 27 27 27 27 30 32 31 30 31 29 27 27 23 22 20 18 18 22 21 22 23 23 24 26 30 31
23 21 22 23 25 25 25 24 24 24 26 24 24 25 29 29 32 33 33 32 31 27 26 27 26 24 23 20 19 20 20 21 23 22 22 24 25 27
22 21 21 23 23 22 21 21 22 21 22 21 21 22 27 31 32 32 31 31 29 27 30 30 26 25 22 22 21 20 21 20 22 23 26 20 24 31
20 18 20 20 19 19 18 18 18 18 18 19 18 20 22 31 30 29 29 30 28 23 26 29 27 26 25 23 21 21 21 21 22 26 23 19 26 30
19 17 12 10 15 16 16 15 15 15 16 17 17 18 20 25 29 30 31 29 27 25 24 26 26 24 24 24 25 22 20 22 22 24 24 20 24 30
16 16 9 8 12 15 15 14 13 14 16 15 15 17 19 20 27 29 29 29 27 27 25 26 25 21 20 16 21 27 21 23 22 21 21 20 24 27
17 15 12 12 13 13 13 12 13 13 13 13 13 16 17 19 17 27 28 27 27 26 26 26 26 23 20 15 13 17 27 21 21 18 18 21 26 31
15 14 11 10 12 12 6 5 6 10 11 9 11 14 15 16 16 18 25 26 27 27 26 25 25 24 23 19 8 10 16 27 26 22 18 17 18 22
11 12 13 10 6 7 1 2 6 7 9 8 10 10 12 14 14 15 18 24 25 26 26 26 23 21 21 18 14 6 16 20 28 29 26 23 17 13
5 8 6 -0 -1 0 10 5 5 8 7 9 8 7 9 11 14 14 15 17 19 26 27 26 25 21 21 19 17 14 17 19 25 25 23 27 27 27

GFSNE_sfc_dewp_054.txt.gz
Dewpoint
47 46 45 44 43 44 43 41 39 36 35 33 32 33 33 33 37 41 40 42 42 41 40 41 40 38 37 35 35 32 30 28 29 29 31 32 33 33
45 45 44 44 44 44 44 42 40 37 34 33 32 33 32 31 34 40 39 40 41 40 40 40 40 40 39 36 35 32 30 29 28 28 29 30 31 32
44 44 44 44 43 43 42 40 38 36 35 34 33 32 30 30 31 35 37 36 36 40 40 39 38 38 38 38 37 35 31 30 28 28 28 30 31 32
43 44 44 44 42 41 40 39 37 37 35 35 33 32 31 32 31 30 30 32 33 35 40 39 38 37 37 37 36 36 34 33 31 30 30 30 31 32
43 43 43 42 40 40 39 39 39 39 38 37 35 35 34 34 33 32 31 31 31 35 36 38 38 38 37 36 36 36 35 35 35 34 34 33 32 32
43 42 42 41 40 39 38 36 37 35 35 35 35 35 33 33 32 31 31 30 29 28 33 33 36 36 36 36 36 36 36 36 36 36 35 35 35 34
42 41 41 41 41 39 38 36 34 33 33 33 32 31 29 28 29 30 29 30 30 28 29 26 27 27 28 34 32 35 36 35 35 33 32 33 34 35
38 39 40 40 39 36 34 33 32 29 28 27 28 28 29 30 29 30 29 27 28 29 27 28 29 29 26 25 27 30 31 33 32 31 31 32 32 32
38 39 37 34 33 32 32 31 31 32 33 29 28 28 29 29 32 31 29 30 29 31 28 29 29 27 27 20 29 31 32 32 32 33 33 32 32 32
34 33 31 29 31 29 27 24 22 23 22 22 26 28 30 31 31 30 29 31 33 31 30 29 26 26 22 23 27 29 31 29 30 30 31 29 30 30
29 29 28 27 27 27 25 23 22 24 25 27 28 29 28 29 31 29 27 27 26 28 28 28 25 26 24 22 23 30 28 28 28 28 29 29 30 30
26 25 26 25 26 24 24 24 24 25 26 27 27 27 28 28 30 29 29 27 27 25 27 25 26 26 20 20 20 21 22 25 27 26 27 26 28 28
23 23 24 23 22 24 27 26 26 24 26 27 26 25 26 27 27 27 28 30 29 30 28 29 26 25 21 20 21 22 22 21 22 23 25 26 27 28
21 23 23 22 24 26 25 22 22 23 22 22 20 21 22 22 23 27 29 31 32 32 33 31 28 23 20 18 18 22 21 21 22 21 22 25 27 29
23 21 21 22 24 24 20 19 22 21 19 18 18 18 18 22 23 27 30 32 33 32 33 32 26 24 22 20 19 20 20 22 22 21 20 21 21 20
22 22 22 23 23 22 21 20 20 19 18 18 17 17 18 19 20 24 31 31 30 29 30 31 29 26 24 22 22 20 21 20 21 21 22 18 20 19
21 20 20 18 16 18 18 17 16 16 15 15 16 15 16 17 18 20 27 29 27 25 27 28 30 30 28 26 21 21 21 20 21 22 22 16 19 20
20 17 14 12 14 15 15 14 14 13 14 14 12 12 14 15 15 18 19 29 27 27 26 26 28 27 26 25 26 22 21 20 21 24 22 16 20 25
18 15 12 10 12 13 13 12 11 12 13 12 11 10 13 14 14 15 17 22 27 27 27 27 28 26 18 16 22 27 20 21 20 18 22 19 17 24
16 15 13 13 12 11 12 11 11 9 8 10 8 8 11 10 11 13 15 15 22 27 27 27 27 26 21 17 15 17 27 18 17 19 18 19 22 28
13 12 13 12 11 11 7 3 -3 1 2 -1 3 8 4 7 8 12 13 14 15 25 26 25 26 27 25 19 12 11 13 23 24 22 20 20 17 21
12 12 12 10 8 6 -0 -1 -2 -7 2 1 4 -2 2 6 7 10 11 11 13 17 18 27 28 27 21 18 15 4 13 14 25 29 26 24 18 13
10 10 8 4 -1 -1 4 -1 -3 -0 5 3 4 4 3 5 6 7 9 11 13 14 15 22 27 25 20 19 16 14 15 13 21 24 24 28 27 27

GFSNE_sfc_dewp_057.txt.gz
Dewpoint
49 48 47 46 44 44 43 41 40 35 36 36 34 33 34 34 35 37 40 42 44 43 42 43 44 44 44 43 40 38 37 35 34 31 31 31 32 33
47 46 45 45 45 45 44 43 42 40 37 35 34 33 33 32 34 37 38 42 42 42 42 41 42 42 43 42 41 39 37 35 33 32 31 31 31 31
45 45 44 44 44 44 44 42 41 38 36 36 34 33 31 32 32 33 36 37 38 40 42 41 40 40 40 40 40 40 39 37 34 31 30 30 30 30
45 44 44 44 43 42 41 40 39 38 35 33 34 33 32 32 33 33 33 32 34 36 39 40 41 40 39 39 39 39 39 38 36 33 31 29 30 29
44 43 43 43 41 40 40 39 39 38 36 34 35 34 33 33 33 33 33 33 32 35 37 37 39 40 40 39 38 38 38 38 36 35 35 34 32 31
44 43 43 42 41 40 39 38 36 33 33 31 31 31 31 32 31 30 30 31 31 31 33 33 35 37 39 39 38 38 37 36 36 36 35 35 35 35
43 42 42 42 41 40 38 35 31 30 29 28 27 27 27 27 27 28 29 30 31 31 30 30 30 30 33 36 38 39 37 36 35 36 36 36 35 33
41 40 40 40 35 34 34 33 31 27 26 26 26 26 26 27 27 27 29 26 25 29 28 29 28 27 27 29 33 35 34 33 34 34 34 33 32 33
39 39 36 32 33 31 30 27 27 27 30 26 24 24 24 25 27 27 25 25 24 25 29 27 31 29 29 29 33 33 35 33 33 33 33 33 33 33
36 35 31 31 29 26 23 21 21 22 22 22 22 23 24 26 27 26 26 27 26 26 28 27 27 28 29 30 33 35 33 33 33 33 32 33 32 30
29 28 26 25 26 24 23 22 24 25 26 28 29 29 30 30 29 29 27 26 24 23 26 28 28 27 27 26 28 28 31 32 32 31 30 29 30 30
24 23 25 24 23 23 25 25 24 23 24 24 26 27 27 27 29 28 28 26 25 25 24 27 27 26 25 24 23 24 28 30 29 27 25 26 26 26
22 22 22 22 22 26 26 24 22 22 21 22 22 21 22 22 23 23 23 25 26 26 28 29 27 26 27 23 22 23 24 24 22 22 25 26 26 27
22 23 23 22 24 25 22 20 20 21 20 19 18 18 18 18 19 20 22 23 26 29 31 32 29 27 25 22 20 21 21 22 21 20 22 24 26 26
22 21 21 23 23 22 18 19 20 19 18 16 16 16 17 17 19 19 21 22 25 32 33 33 31 29 27 21 20 20 21 22 22 21 19 20 20 18
21 22 22 23 22 21 20 18 18 17 16 15 15 15 15 15 16 17 17 19 20 28 31 30 31 30 26 23 23 20 22 20 22 22 21 17 18 15
23 22 18 18 17 17 17 16 15 15 14 14 14 13 11 13 14 15 15 17 18 23 26 28 29 30 29 27 24 23 23 20 21 22 21 16 15 17
20 17 15 14 15 14 13 13 13 12 11 11 11 11 9 11 11 11 14 15 16 17 26 27 27 28 27 27 29 25 22 20 21 22 22 16 17 17
18 15 12 12 13 12 12 11 11 11 10 9 10 8 8 10 6 8 11 13 13 15 16 28 27 26 21 16 24 29 22 21 20 17 21 20 15 18
17 15 13 14 12 10 9 9 9 7 6 6 7 3 5 5 4 6 8 10 11 13 15 25 27 27 24 19 19 19 26 21 18 14 16 19 20 24
15 14 14 12 10 9 9 7 4 2 1 -6 -2 -2 -5 2 3 4 6 7 9 12 13 15 21 28 29 24 15 14 13 25 23 19 17 17 16 18
14 13 12 10 9 8 6 1 0 -3 -5 -2 -8 -10 -8 -2 2 4 4 4 7 11 14 15 16 26 24 22 19 11 14 13 22 28 26 23 17 13
12 11 9 7 6 5 4 0 -3 -7 -5 -3 -2 1 -9 0 4 4 3 4 7 9 12 13 14 23 24 23 21 17 17 14 20 22 21 28 27 26

GFSNE_sfc_dewp_060.txt.gz
Dewpoint
50 49 50 48 47 45 43 42 42 38 37 38 37 36 36 36 36 37 38 39 42 43 44 44 45 45 45 45 45 44 43 42 41 39 38 36 34 34
49 49 47 46 45 45 44 43 42 41 39 39 36 36 36 34 36 37 36 39 42 42 42 43 43 44 44 44 44 44 43 42 40 40 37 35 34 34
47 47 46 45 45 45 44 43 42 41 38 38 36 35 35 35 35 35 36 37 38 40 41 41 42 42 42 42 42 43 43 42 40 41 38 38 34 34
47 46 45 45 44 44 42 41 40 39 38 36 36 36 34 35 35 34 34 34 35 36 39 39 40 40 40 41 41 40 41 40 40 40 38 38 33 33
46 45 45 44 43 42 41 39 40 38 38 37 37 35 35 34 34 34 34 34 33 35 37 38 38 39 39 39 40 40 40 40 39 39 39 38 35 33
45 45 44 44 42 40 39 38 37 36 35 33 32 32 32 32 31 30 28 31 31 30 32 34 35 36 37 37 38 39 39 40 39 38 38 37 35 35
44 44 44 43 41 40 39 37 34 32 30 29 28 28 27 28 27 28 27 26 27 28 29 30 31 31 32 33 34 36 38 39 39 39 38 35 35 36
43 42 42 40 38 36 35 33 32 29 28 26 26 25 22 24 26 26 26 25 22 26 26 25 27 27 28 30 32 33 34 37 39 38 36 35 36 35
41 40 36 34 34 32 31 28 25 25 27 25 22 21 23 24 25 25 26 25 25 26 27 25 26 26 27 27 32 34 34 36 36 36 36 35 34 34
39 35 32 30 30 27 22 20 21 23 24 23 23 24 25 26 27 27 27 26 26 26 28 24 26 26 27 29 32 33 34 34 36 36 35 33 33 33
30 30 29 27 27 25 21 22 24 25 25 23 24 26 27 27 25 27 24 23 22 21 25 25 26 25 27 28 29 30 32 34 34 34 32 32 31 30
25 25 27 24 24 26 26 25 22 22 20 18 20 23 22 23 22 24 25 23 22 20 25 25 24 27 25 27 24 26 29 31 32 32 29 27 27 26
22 21 22 23 25 27 26 23 21 19 18 18 17 18 19 18 19 19 20 21 20 19 22 25 26 27 27 26 23 23 27 29 28 25 26 25 26 26
21 21 23 25 26 24 22 21 20 19 19 17 17 16 15 15 15 16 18 20 21 22 23 25 27 29 28 26 24 25 23 24 24 21 24 23 25 27
23 23 24 26 24 21 20 20 19 18 17 15 14 14 14 14 14 17 19 19 19 21 20 26 30 31 30 27 24 24 21 21 25 24 25 25 25 25
23 23 24 23 22 21 19 18 16 16 14 14 13 14 13 12 12 14 15 15 16 18 18 24 32 31 29 27 26 26 23 24 23 24 24 24 25 25
23 21 19 18 17 18 16 15 14 13 12 12 11 11 11 9 10 12 10 13 13 14 16 18 23 31 30 29 26 26 26 26 25 24 24 24 25 26
20 17 15 15 15 14 14 13 13 12 11 10 9 9 8 7 8 7 8 9 11 12 13 16 19 26 27 28 29 25 25 25 25 24 24 23 24 26
17 15 14 13 14 13 13 12 11 11 10 7 7 8 7 6 6 5 6 7 8 9 11 13 18 21 23 21 24 30 27 24 24 23 24 24 24 25
18 15 14 14 14 13 12 9 9 9 6 5 6 6 5 4 4 3 4 5 6 6 9 11 15 18 16 23 23 24 30 26 24 22 22 23 24 24
17 16 15 14 13 12 11 9 8 5 4 3 2 3 2 2 2 2 3 3 3 5 7 9 11 20 21 23 24 22 23 25 25 23 21 22 22 22
15 14 14 12 11 10 8 6 4 3 3 3 3 -0 -3 -2 -0 1 3 3 3 4 6 9 11 17 17 23 23 22 21 18 22 27 24 24 23 20
12 11 10 9 7 6 5 3 1 -0 -0 -0 -2 -1 -5 -2 1 3 4 3 3 3 4 7 10 13 16 19 24 23 19 18 22 24 26 28 27 26

GFSNE_sfc_dewp_063.txt.gz
Dewpoint
58 59 57 56 55 52 49 49 48 44 41 42 42 41 40 39 39 41 40 41 40 42 42 43 44 45 45 46 47 47 47 47 46 45 43 42 43 42
57 56 55 54 52 50 48 47 46 47 45 42 40 40 40 36 39 40 40 38 40 41 41 42 42 43 43 44 44 45 45 46 46 45 44 42 43 43
54 53 53 51 50 49 48 47 45 43 42 40 39 38 39 39 39 40 39 39 37 39 40 40 40 41 41 42 42 42 43 43 44 44 44 42 42 43
51 51 51 49 48 48 45 43 44 43 40 40 39 38 38 40 40 38 34 31 34 35 38 38 38 39 39 39 40 40 40 41 41 42 43 43 42 41
51 50 50 48 47 45 44 42 42 40 41 39 38 38 38 37 35 34 33 32 26 31 32 34 35 37 36 36 37 37 38 38 39 40 40 40 40 40
50 49 48 47 45 44 43 41 41 38 38 38 35 34 34 34 32 29 23 22 22 20 26 29 32 33 34 34 34 34 34 35 37 38 39 38 38 39
48 47 46 45 43 42 42 39 38 36 33 32 31 31 30 28 24 19 21 22 24 25 23 24 24 25 26 29 30 31 32 33 34 36 36 37 38 38
45 45 44 42 40 38 38 37 36 32 31 30 29 26 24 20 21 23 24 22 19 25 25 24 25 25 25 26 30 31 33 34 35 35 38 38 36 36
43 42 39 37 36 34 33 31 30 29 29 27 22 19 20 23 26 25 23 23 22 23 24 23 24 23 24 23 31 32 33 34 35 35 37 38 36 35
41 39 36 34 33 30 25 21 21 22 24 22 24 25 26 27 27 25 25 24 23 23 24 22 22 22 24 26 30 32 32 33 35 35 36 36 35 35
34 34 33 31 31 29 24 23 22 24 25 23 22 23 24 24 24 23 22 20 22 16 19 20 22 23 23 25 28 31 31 31 33 33 36 35 34 33
30 29 29 29 29 27 25 23 21 22 19 17 19 19 21 21 21 20 21 22 21 18 23 22 16 19 20 22 26 28 29 31 33 33 34 33 30 25
26 25 25 27 27 27 25 23 22 19 19 18 17 17 18 18 18 16 17 19 20 19 19 22 20 20 22 25 25 27 30 30 31 32 32 28 26 24
23 23 26 27 27 24 23 22 21 21 20 18 16 15 15 14 13 13 14 16 18 18 19 22 23 22 24 25 26 26 27 29 30 27 27 25 25 26
24 25 26 27 24 23 22 20 19 19 18 18 16 14 14 13 12 15 17 17 16 16 15 20 23 23 27 27 27 25 26 26 28 27 29 29 28 28
25 26 26 24 23 22 20 18 17 16 16 16 14 13 14 14 12 12 14 13 13 13 14 19 22 23 25 30 31 28 27 27 25 26 28 30 29 32
25 24 22 21 20 19 18 16 16 15 15 15 14 12 11 11 10 11 11 11 12 13 14 14 17 20 22 25 30 26 27 29 30 27 27 28 31 33
22 21 20 20 19 17 16 16 16 13 15 14 13 10 9 9 8 9 9 10 10 9 10 12 16 18 20 24 30 27 27 28 27 29 29 28 26 30
22 20 19 19 19 18 17 16 15 15 13 11 10 9 9 9 8 8 8 9 9 8 8 10 14 17 18 18 24 30 29 29 28 28 28 27 26 27
19 19 18 17 17 15 14 12 12 12 11 9 9 9 9 8 7 7 7 8 8 6 6 7 11 14 16 16 19 22 30 32 30 28 27 27 27 25
17 16 17 16 14 13 14 13 12 11 9 8 7 7 8 7 6 6 7 5 6 6 6 6 8 12 15 21 21 22 29 29 31 28 27 25 22 22
16 14 14 13 13 12 12 11 9 9 8 7 7 7 7 7 6 6 6 7 6 6 6 6 8 10 13 17 18 22 27 30 26 27 26 25 23 20
13 12 12 11 10 9 7 8 6 6 5 4 4 5 6 5 5 6 6 6 5 5 5 6 7 9 11 16 18 20 27 26 24 24 26 27 27 26

GFSNE_sfc_dewp_069.txt.gz
Dewpoint
60 60 58 59 60 59 57 55 52 50 49 51 51 52 52 52 47 45 46 44 44 43 42 43 44 44 44 44 43 43 43 43 43 43 43 44 45 45
58 59 59 59 59 59 57 57 56 53 50 53 52 50 49 44 45 46 45 45 43 42 41 42 42 43 42 41 41 40 40 40 40 41 41 41 41 42
57 58 58 59 59 59 59 57 55 54 52 53 49 52 48 47 42 44 44 44 43 42 41 41 40 39 39 39 39 38 37 37 36 36 35 36 36 37
56 57 57 57 58 58 55 54 54 53 52 50 50 48 47 45 42 43 41 40 42 42 42 41 38 37 36 36 37 38 38 35 35 35 35 35 35 36
55 56 57 57 55 55 55 54 53 52 53 51 48 44 45 43 43 44 42 43 38 42 38 36 35 34 34 35 37 36 36 36 36 36 35 35 34 34
55 57 56 56 54 54 53 52 52 50 49 46 44 43 41 40 40 38 37 38 36 30 29 26 31 34 36 35 35 35 35 35 35 36 35 34 34 35
56 56 55 54 50 52 53 52 50 47 45 43 40 37 38 37 36 36 34 34 34 28 26 28 29 29 31 34 34 36 36 36 36 35 34 34 35 35
55 55 54 50 49 45 45 45 46 45 44 42 40 39 35 36 35 34 29 28 26 29 28 27 28 28 27 28 32 32 31 33 33 34 34 35 35 35
54 56 54 52 47 49 40 38 35 37 37 40 37 35 35 36 33 30 29 28 27 27 26 26 26 25 27 22 33 34 33 33 34 34 35 34 35 35
55 55 52 45 44 41 37 31 30 31 30 30 32 31 32 32 30 28 28 27 27 25 25 23 26 28 27 27 31 33 34 34 34 34 34 34 34 34
41 41 40 38 37 36 32 31 31 30 32 32 32 31 31 29 27 27 27 22 26 21 25 25 25 25 29 28 26 27 31 32 33 34 34 34 34 34
34 35 35 35 34 35 34 31 28 27 27 26 25 22 21 24 22 21 20 23 23 22 23 23 21 22 20 25 27 26 26 30 33 33 34 34 34 32
32 31 32 33 34 33 32 31 28 29 28 25 22 22 23 22 20 20 18 19 21 20 21 22 20 20 22 20 20 24 26 26 28 30 34 34 34 33
29 30 31 31 30 30 29 29 28 28 28 27 24 18 16 16 17 18 17 17 17 18 19 23 22 21 21 21 20 20 23 26 27 28 32 33 34 34
29 29 29 28 28 27 27 28 28 28 26 24 21 20 21 18 16 19 22 21 19 20 16 19 21 19 20 20 19 20 21 22 27 28 33 34 35 33
28 28 28 27 26 25 26 27 26 25 26 26 23 20 19 21 21 20 19 19 18 17 16 17 19 21 20 19 19 20 22 21 24 26 30 34 35 36
28 28 27 27 26 26 26 25 23 20 20 21 21 21 20 19 19 19 18 17 16 16 16 14 15 17 18 17 18 18 19 21 24 26 27 33 35 35
30 28 28 29 27 25 24 21 21 19 19 18 19 18 17 17 16 16 15 15 15 13 12 12 14 14 14 16 19 18 20 25 27 26 28 32 30 34
28 27 27 27 25 24 23 21 20 19 16 18 17 16 16 15 15 14 14 14 13 12 10 11 12 14 13 14 14 21 20 19 21 23 25 32 30 31
24 23 23 22 19 18 18 18 18 17 18 15 14 15 15 14 13 12 12 12 11 9 7 5 7 10 13 15 15 17 15 18 21 24 25 29 31 29
21 19 19 19 17 17 17 17 16 16 14 15 14 14 15 12 10 10 10 10 10 7 7 6 6 13 12 14 15 16 19 21 23 23 26 26 29 27
19 15 15 15 16 15 15 15 14 13 12 11 11 11 11 11 10 9 10 9 7 8 7 6 6 7 9 11 11 14 16 20 21 23 25 26 28 25
15 14 14 13 13 12 9 11 9 9 9 8 8 8 10 8 7 8 9 9 8 7 5 7 8 9 7 8 12 13 15 18 18 23 26 30 28 28

GFSNE_sfc_dewp_072.txt.gz
Dewpoint
55 55 55 56 57 57 56 56 53 50 49 50 53 53 53 53 51 50 48 46 44 44 45 46 47 47 47 47 46 45 45 44 44 44 44 43 43 43
54 55 55 55 57 58 57 57 55 54 51 52 52 54 53 52 51 47 46 46 44 43 44 44 44 45 45 45 45 43 42 42 41 41 41 40 40 39
54 54 55 57 57 57 57 57 56 55 53 54 53 53 51 51 46 46 46 45 43 42 42 42 42 42 42 41 41 40 40 39 38 37 35 34 35 35
52 53 54 55 56 57 58 57 57 56 55 53 53 51 51 51 46 44 46 44 43 43 42 42 41 40 39 38 38 37 37 36 35 34 34 34 34 34
52 52 53 54 54 57 57 56 56 55 55 53 53 49 48 46 45 44 44 44 43 44 43 41 40 39 39 37 35 35 37 36 36 36 35 35 34 33
53 53 53 53 54 56 56 55 55 54 53 52 52 43 45 43 45 43 42 42 42 41 40 38 38 38 37 35 35 36 36 36 36 36 36 36 35 35
53 53 53 52 49 53 55 54 53 52 52 51 50 40 41 39 42 42 41 39 41 41 34 30 30 30 32 36 35 36 36 37 37 37 37 36 35 36
52 53 53 48 49 46 46 46 51 52 50 49 48 44 44 40 37 37 35 34 32 39 35 33 30 28 28 30 33 34 35 37 37 37 36 36 35 35
53 53 53 53 48 52 44 40 36 35 40 46 44 37 35 37 37 34 32 32 32 35 33 30 28 26 28 23 33 35 35 35 34 35 34 34 35 34
53 53 53 52 49 46 37 33 33 33 34 34 34 34 34 35 35 34 33 32 32 33 31 27 26 27 28 29 32 33 35 34 34 35 35 34 34 34
40 40 42 41 39 38 34 33 31 30 33 34 34 34 33 33 33 32 31 30 29 27 29 29 27 26 26 26 28 30 31 29 31 33 34 34 34 34
34 34 35 35 35 35 34 31 29 28 28 27 27 29 29 29 28 29 29 28 28 25 25 26 23 23 23 24 25 25 24 29 29 28 28 31 34 33
32 31 32 34 34 33 31 29 28 29 29 28 28 28 30 30 29 22 22 25 26 25 25 25 22 21 22 22 22 23 24 22 23 25 30 30 32 34
30 30 32 32 31 30 29 29 29 28 28 28 27 27 25 23 23 23 23 22 22 20 22 24 23 22 21 20 19 20 21 22 26 23 25 27 31 34
30 30 30 29 29 28 29 30 29 29 28 27 26 27 27 21 21 23 24 23 22 23 19 23 23 21 20 18 17 18 19 19 23 23 26 26 28 34
27 26 26 26 26 27 26 26 26 26 26 25 25 25 26 25 24 24 23 23 21 19 20 21 21 21 18 18 18 18 19 18 19 20 22 24 25 32
27 27 26 26 26 26 26 25 25 26 23 23 22 21 20 20 20 21 21 20 17 16 17 19 19 19 20 17 16 15 16 16 18 21 25 25 25 31
29 28 27 27 26 25 24 24 23 20 20 20 20 19 18 17 17 16 17 17 17 16 14 15 17 16 15 15 17 14 17 22 21 19 19 20 20 24
25 24 23 23 22 22 21 21 19 19 20 18 16 16 16 15 15 15 15 15 15 14 12 12 11 11 8 7 14 17 13 13 13 14 18 20 22 25
23 22 21 21 21 19 19 18 17 17 15 14 14 13 13 14 12 11 11 10 10 9 8 7 8 11 13 9 9 11 14 13 14 15 18 22 23 26
19 18 18 18 18 17 17 16 15 14 14 12 12 11 6 10 8 9 8 7 8 8 7 7 8 12 10 11 7 8 12 15 15 16 20 18 17 20
17 16 15 15 15 14 14 13 11 10 10 9 6 4 4 5 5 4 4 5 7 8 8 7 7 7 9 10 8 8 10 13 15 17 21 21 21 18
13 14 13 12 11 11 10 9 9 7 7 5 7 7 -2 0 5 5 6 7 7 6 5 6 8 7 6 6 7 8 9 10 12 14 16 21 26 29

GFSNE_sfc_dewp_075.txt.gz
Dewpoint
56 55 55 54 55 55 55 54 51 48 48 50 51 53 53 52 51 51 50 48 46 46 46 48 49 49 49 50 50 49 48 47 46 46 46 46 45 45
55 55 54 54 55 56 55 55 55 52 50 51 51 52 53 53 52 52 52 49 46 45 44 45 46 47 48 47 47 47 47 46 45 45 44 43 43 42
54 55 54 54 54 55 55 55 55 55 52 52 54 54 52 53 53 52 52 50 48 44 44 44 44 45 44 44 45 45 45 44 43 42 41 40 38 36
53 54 53 54 54 55 55 55 55 55 54 52 53 53 51 52 53 49 48 47 46 44 44 44 43 42 42 42 42 41 41 41 40 38 36 34 34 34
53 52 52 53 54 55 55 55 56 55 55 55 54 54 53 48 49 48 48 48 46 45 43 42 41 41 41 41 40 39 38 37 37 37 36 35 33 33
52 52 52 51 52 53 54 55 55 56 56 55 54 53 50 48 50 50 45 46 46 44 44 41 42 42 41 40 39 37 36 37 37 37 36 36 36 36
52 52 52 51 48 50 53 54 55 55 55 54 52 52 46 40 44 47 47 46 42 43 41 41 40 39 39 39 36 37 37 37 37 37 37 37 36 35
51 52 52 48 48 44 44 46 52 55 54 53 52 51 50 47 45 41 36 36 35 39 37 36 39 37 38 39 37 37 36 37 37 38 38 37 36 35
53 52 52 52 48 52 43 39 36 36 39 49 51 50 43 37 37 34 34 34 33 33 34 32 36 34 37 36 35 35 36 36 36 36 36 36 36 35
52 52 52 52 51 49 40 34 33 34 34 36 37 35 35 36 36 35 34 32 32 34 34 30 33 32 34 33 34 35 35 34 33 33 34 35 35 34
43 41 45 47 43 41 36 32 31 31 34 34 34 34 34 34 35 34 32 31 29 30 32 31 31 30 30 29 30 32 28 29 30 31 30 30 31 32
35 35 36 38 36 36 34 32 28 28 28 29 29 29 29 30 32 32 31 29 29 28 29 27 25 25 23 25 25 25 25 25 26 26 28 29 31 30
32 32 34 35 35 34 33 31 29 29 28 28 28 29 30 30 29 29 29 29 28 27 26 25 22 21 22 22 23 24 23 23 23 21 24 28 28 27
31 31 32 32 32 31 30 30 30 29 29 28 27 27 27 26 27 27 27 26 24 22 23 25 23 22 21 19 18 20 20 21 22 23 22 24 26 28
30 30 31 30 29 29 30 30 29 29 28 26 25 25 25 27 28 28 28 26 25 24 19 24 24 23 22 19 17 17 18 18 21 21 22 21 21 23
27 27 27 27 26 26 26 26 26 26 25 24 24 25 26 25 24 24 23 21 21 18 17 22 22 22 19 19 18 18 18 17 18 19 20 21 23 24
28 27 26 25 24 24 24 24 23 23 22 23 22 22 21 21 20 19 18 18 17 17 17 17 18 19 19 18 17 15 16 17 19 22 21 19 19 21
27 24 23 23 23 22 20 19 21 21 21 20 19 18 17 16 14 15 16 16 15 15 14 13 13 11 10 10 12 13 16 15 14 15 15 14 14 19
22 22 21 20 20 20 19 19 17 17 17 16 16 16 16 15 13 13 12 12 11 10 9 8 10 10 9 7 8 12 11 11 12 13 14 16 16 18
20 18 18 18 18 17 17 16 15 15 15 14 13 12 11 11 11 10 9 8 9 8 8 7 8 9 7 6 7 10 12 12 12 12 14 17 19 21
17 16 16 16 16 14 14 13 12 11 10 9 9 9 7 8 7 7 6 6 6 7 6 6 5 10 9 10 5 5 9 12 12 12 13 13 14 15
14 13 12 11 11 11 10 10 9 8 8 8 4 2 0 3 2 2 2 2 7 7 5 5 7 6 6 5 4 4 7 9 11 13 15 16 16 15
11 10 9 9 8 7 7 5 4 5 4 3 1 -1 -12 -4 1 0 1 4 5 5 5 4 4 5 5 5 5 5 6 7 10 12 16 17 18 21

GFSNE_sfc_dewp_078.txt.gz
Dewpoint
55 55 55 55 55 55 55 54 51 48 48 49 51 53 53 53 51 50 49 48 47 46 46 47 49 50 52 54 55 55 54 53 53 52 52 51 48 48
55 55 55 54 55 55 55 54 54 51 49 49 50 52 53 53 52 51 51 49 47 46 45 45 47 49 50 51 51 51 51 51 51 50 49 47 47 46
55 54 54 54 54 54 54 54 54 53 51 50 52 53 51 52 52 52 53 52 52 48 46 45 45 46 48 48 48 48 48 48 48 48 46 45 45 44
54 54 53 53 53 53 54 53 53 53 52 50 51 52 51 53 53 52 53 53 53 49 46 45 45 44 45 45 45 45 45 45 44 44 43 42 41 39
52 52 52 53 53 53 53 53 53 53 53 53 52 53 53 52 52 51 53 52 51 48 44 44 44 44 44 44 43 43 42 41 40 40 38 38 37 35
51 52 52 52 52 52 52 53 53 53 53 53 53 53 54 53 51 52 50 50 50 50 46 44 43 44 43 42 41 41 40 37 37 37 37 37 36 36
51 52 52 51 48 50 52 52 53 52 52 52 53 53 53 45 47 51 49 51 42 43 43 42 42 42 42 41 40 38 38 37 37 37 37 38 36 36
51 51 51 48 47 44 44 44 49 51 52 52 52 52 52 53 51 50 50 38 39 39 38 36 38 37 38 38 38 37 37 37 37 37 38 39 38 37
52 52 51 51 47 51 45 42 42 39 41 51 52 53 52 53 51 38 36 35 33 35 35 32 36 35 38 38 38 37 37 38 37 37 37 38 38 37
53 53 52 52 51 51 50 45 41 35 36 37 40 40 36 38 39 38 36 32 32 33 34 31 33 32 35 35 35 36 36 36 34 32 33 33 33 34
53 53 52 52 49 45 47 38 32 32 34 35 34 34 34 34 36 35 33 33 29 30 32 31 31 31 32 32 35 36 33 29 29 27 27 29 30 31
41 37 35 38 39 39 48 37 31 29 30 29 29 30 30 31 31 31 32 29 29 27 27 28 28 28 25 26 29 28 26 24 23 23 23 24 26 28
33 32 33 34 34 33 33 31 29 30 29 29 28 28 28 28 28 28 28 28 27 24 27 26 24 24 24 22 23 24 24 22 21 21 22 23 23 24
30 31 31 31 31 31 30 30 30 29 28 27 26 25 25 25 27 27 28 28 28 26 28 27 24 23 22 20 19 21 20 21 23 21 22 23 23 22
29 29 30 30 29 28 29 29 29 28 26 24 23 24 25 26 27 27 27 27 26 26 21 23 23 21 22 20 18 18 18 18 22 22 23 21 22 22
27 26 26 26 25 25 25 25 24 25 24 23 22 24 24 23 22 23 21 20 20 18 17 21 21 20 19 18 17 17 18 17 18 20 22 21 21 21
27 26 24 23 22 22 22 22 23 22 21 21 21 20 19 19 17 18 17 17 16 16 16 13 12 13 13 11 13 12 15 15 15 15 15 15 16 17
23 21 21 21 19 19 19 18 19 19 19 18 18 17 16 15 14 14 14 13 12 10 9 8 12 12 10 8 12 9 10 10 10 11 13 13 13 16
19 18 18 17 17 18 17 17 16 17 18 15 13 13 13 13 13 11 10 9 9 8 7 9 9 8 4 1 5 9 10 11 12 12 12 12 13 14
17 16 16 16 16 16 16 15 13 13 12 12 10 10 10 10 9 8 8 5 7 7 6 5 5 6 4 -1 6 9 10 8 8 8 9 11 13 15
14 13 13 13 12 12 11 11 10 9 8 7 6 4 -1 4 3 5 4 3 4 4 3 3 5 9 7 8 -2 2 6 10 11 10 11 11 11 12
11 10 9 9 8 8 7 7 6 5 4 4 -0 -3 -6 0 -1 1 1 -0 4 5 5 4 3 5 5 4 3 2 5 7 10 12 13 13 14 11
7 6 4 2 2 2 3 1 -1 -2 -2 -4 -4 -3 -12 -4 1 -0 0 3 4 3 4 4 4 4 3 3 4 4 4 5 6 7 8 13 14 15

GFSNE_sfc_dewp_084.txt.gz
Dewpoint
55 55 54 54 55 54 54 53 50 48 48 50 51 53 53 53 51 51 50 48 47 47 47 48 50 52 52 53 54 54 55 56 57 57 57 58 59 59
56 55 55 55 55 55 55 54 54 52 49 49 50 52 53 53 53 52 52 50 48 46 46 46 47 48 49 50 51 51 52 53 54 55 56 56 57 57
55 55 55 55 55 55 55 55 54 54 51 51 51 53 52 53 52 53 53 52 52 47 46 45 45 45 46 47 47 48 50 51 52 52 54 55 56 57
55 54 54 54 55 55 55 54 54 53 52 50 50 50 52 53 52 53 51 51 52 50 47 46 46 45 44 45 45 45 46 47 47 48 50 52 53 55
55 55 54 55 54 54 54 53 53 53 52 51 50 51 52 53 52 52 52 53 52 50 47 46 46 46 46 45 45 45 45 45 45 46 46 48 49 50
55 55 54 54 54 53 53 53 53 53 52 52 52 52 52 53 52 51 51 52 52 53 51 50 48 47 46 45 44 44 44 45 45 45 42 40 39 40
54 54 54 53 50 51 53 53 53 52 52 52 51 51 51 51 51 51 51 52 52 53 52 53 52 51 49 44 45 44 44 44 43 41 38 38 37 37
53 53 53 48 48 44 45 46 49 52 51 51 50 50 50 50 51 51 51 50 49 51 51 50 42 41 42 43 43 42 41 40 40 39 38 37 37 36
53 53 52 52 48 51 46 42 42 42 44 51 50 50 50 51 51 50 50 50 50 41 37 34 36 36 38 38 39 39 39 38 38 38 37 37 37 37
53 53 53 53 52 51 51 50 49 46 38 41 43 40 35 34 38 42 40 33 34 32 33 32 32 31 33 33 35 35 35 35 35 35 35 34 34 34
51 37 36 38 37 38 42 46 41 32 32 33 33 32 31 32 33 37 34 36 32 27 28 31 29 30 29 29 32 34 33 32 32 32 32 32 32 31
33 33 33 34 34 36 38 39 33 30 29 29 29 29 29 29 29 29 30 29 28 25 27 27 27 28 26 29 28 28 28 29 30 30 30 29 28 27
31 30 31 32 32 33 33 33 32 30 29 28 27 27 26 26 26 26 26 27 24 21 26 28 25 26 26 25 27 27 27 26 26 26 25 24 24 21
28 28 29 29 28 28 28 28 28 27 26 24 23 22 23 23 25 25 25 25 25 23 24 26 23 23 23 22 22 24 24 26 25 24 24 23 22 21
27 26 25 25 24 24 25 24 24 23 22 20 19 20 21 23 24 25 25 24 22 21 20 20 21 22 21 20 19 18 15 16 18 16 16 16 15 18
22 21 21 21 19 19 20 21 21 21 20 19 19 20 20 19 19 21 19 20 17 13 11 13 14 14 13 11 10 13 12 11 9 9 10 13 14 17
20 19 18 18 17 17 17 17 18 18 17 18 17 17 16 14 13 14 14 14 13 11 11 9 7 9 9 10 12 7 7 6 6 9 10 11 14 15
17 15 15 15 15 15 14 14 14 14 15 15 15 14 12 11 10 10 10 10 9 7 6 5 8 6 4 3 7 6 5 5 7 6 7 8 9 12
13 13 13 13 14 14 13 13 12 11 11 10 10 10 10 9 9 7 9 9 7 5 4 5 5 4 1 -0 0 4 6 6 7 8 8 9 10 12
11 10 10 11 11 10 9 8 7 7 6 6 6 6 7 8 7 6 5 6 5 3 3 2 2 3 3 3 4 6 9 7 8 9 9 10 11 12
7 6 7 7 7 7 6 5 4 3 2 1 2 3 3 5 4 4 4 4 4 2 1 1 2 8 5 6 3 2 5 8 8 8 9 9 9 9
4 4 4 3 3 3 0 -0 1 0 0 1 -0 -2 -2 2 1 1 2 2 2 3 1 1 1 1 1 1 1 2 4 6 7 9 10 10 10 6
-1 1 -0 -2 0 -2 -1 -3 -6 -6 -5 -5 -4 -3 -7 -3 -2 -2 -1 1 1 1 1 0 0 -0 -1 -0 1 2 1 2 3 4 6 10 12 15

GFSNE_sfc_dewp_087.txt.gz
Dewpoint
57 56 55 55 57 54 54 54 51 49 48 52 53 54 54 54 53 54 54 50 48 48 48 50 51 52 52 53 54 55 56 57 57 57 58 58 59 59
56 55 55 55 56 57 55 55 55 53 50 50 52 54 55 54 53 54 54 51 48 46 46 46 48 49 49 50 51 52 53 54 54 55 55 56 57 57
56 56 55 56 56 56 56 56 56 55 53 52 53 53 54 54 53 54 53 53 53 47 46 46 45 45 46 47 48 48 50 50 51 52 53 54 55 56
55 55 55 55 55 56 55 55 55 54 53 53 53 54 55 55 56 55 52 51 53 50 47 46 46 45 45 45 45 45 46 47 48 49 50 51 53 54
55 55 55 55 55 56 56 55 55 54 55 54 53 54 54 55 54 55 55 56 53 50 47 46 46 46 46 45 45 45 45 45 45 45 46 47 48 49
56 57 56 56 56 56 55 55 54 54 54 53 53 52 53 54 55 55 55 56 55 53 51 49 48 48 46 46 45 45 45 45 45 44 44 43 43 45
56 56 57 55 50 53 55 56 56 55 54 54 53 53 53 53 53 54 53 53 55 55 54 55 55 55 53 46 48 45 44 44 44 44 44 42 41 41
55 56 56 50 50 45 45 46 51 54 53 53 52 51 51 51 52 52 51 51 50 54 53 53 42 39 39 40 39 40 40 40 40 39 38 38 37 37
55 54 54 54 50 54 48 43 43 42 43 50 51 52 51 50 48 51 51 52 50 38 39 36 35 32 34 35 36 37 36 36 36 36 35 35 35 34
48 42 43 44 39 40 44 49 45 34 35 37 35 34 33 34 37 39 39 34 34 33 33 33 32 30 32 33 34 34 34 34 34 34 34 34 34 34
35 34 34 35 34 35 39 40 32 31 33 33 32 31 31 30 31 37 35 35 34 30 29 32 30 29 29 28 31 32 32 32 32 31 31 31 31 32
32 31 32 33 33 34 37 38 33 31 32 30 28 28 28 28 28 29 30 32 30 26 27 28 29 31 28 30 30 30 30 29 29 29 30 30 31 31
28 28 29 30 30 30 30 30 30 28 27 26 26 26 26 26 26 27 27 27 25 23 27 31 28 29 28 28 27 27 27 26 27 27 27 27 27 26
28 28 28 28 27 27 28 26 26 26 25 24 24 23 24 24 26 25 25 25 24 23 24 28 26 26 26 26 24 23 25 24 23 20 21 19 18 17
27 25 25 25 25 25 24 24 25 26 26 25 25 24 24 24 26 26 25 21 19 18 16 17 18 19 19 19 17 16 14 14 15 12 14 15 15 16
24 24 23 22 22 23 24 25 24 25 24 24 23 22 21 21 20 19 18 21 16 12 8 10 12 15 15 12 12 13 10 8 6 8 11 14 15 17
24 25 24 23 22 22 21 20 21 21 21 21 21 19 16 14 12 14 13 14 13 11 10 7 6 7 7 8 13 6 6 5 5 9 9 12 15 16
22 22 21 21 20 19 18 17 16 14 15 15 16 14 12 11 10 11 11 11 10 6 5 5 8 7 4 5 8 5 5 6 7 7 8 11 11 15
19 18 18 18 17 15 14 13 12 12 11 11 12 12 12 11 11 9 10 10 8 5 3 3 6 8 7 7 4 5 7 7 9 10 10 11 13 14
15 15 15 14 12 10 10 9 9 10 10 9 10 11 12 11 10 8 8 9 7 4 2 0 2 3 6 7 8 9 8 9 10 10 11 11 13 14
10 10 11 11 10 9 10 9 9 8 8 9 8 8 10 8 7 7 7 5 5 3 1 0 0 5 6 8 9 9 10 8 8 9 11 12 12 12
8 7 7 8 8 8 9 9 8 7 6 6 7 7 8 8 7 6 6 6 4 4 1 1 0 1 3 3 4 7 7 10 9 9 10 10 12 11
7 6 6 7 7 6 5 5 3 4 2 2 3 3 5 5 4 5 5 4 3 2 1 2 1 0 1 2 3 6 6 6 7 10 11 11 12 15

GFSNE_sfc_dewp_090.txt.gz
Dewpoint
58 58 56 56 56 53 52 50 49 48 44 49 52 55 54 55 53 55 55 51 48 48 49 50 51 52 53 53 54 55 55 56 57 57 58 58 59 60
56 56 54 55 55 56 54 54 54 53 49 49 51 53 56 53 53 55 55 52 49 47 46 47 48 50 50 51 51 52 53 53 54 55 55 56 57 58
55 56 55 55 56 57 58 57 56 56 52 53 54 55 57 56 54 55 54 55 54 48 46 46 46 46 47 47 48 48 49 50 51 52 53 54 55 56
53 55 54 55 56 56 56 56 56 55 54 52 52 53 53 54 55 56 53 52 54 50 48 47 46 45 45 45 45 45 46 46 47 48 49 51 52 54
55 56 55 55 55 55 55 54 54 54 55 55 54 53 54 55 56 56 57 58 55 50 46 45 46 46 45 45 45 45 45 45 45 45 45 46 47 49
54 56 55 55 55 55 55 55 55 55 55 54 54 53 54 55 55 55 54 55 55 52 50 49 48 47 46 44 44 44 45 45 45 44 44 43 42 44
56 54 55 54 50 53 57 57 57 57 56 56 55 54 54 54 54 54 53 54 55 56 55 55 46 43 41 40 41 41 42 43 43 43 42 40 39 40
56 57 57 51 51 45 45 46 51 56 55 55 53 53 53 53 53 52 52 51 51 44 46 41 37 35 36 37 37 37 37 38 38 38 37 37 36 36
56 55 55 55 50 55 47 43 43 37 38 47 49 50 45 39 39 42 42 40 38 37 39 35 35 33 34 35 35 35 35 35 35 35 34 34 34 34
38 38 41 41 37 38 43 40 35 34 35 35 33 32 32 32 34 38 39 37 35 33 33 36 33 30 32 32 33 33 33 33 34 34 33 33 33 33
33 33 34 34 34 36 40 36 32 31 32 31 31 31 30 30 32 38 34 35 36 29 29 32 31 29 30 31 32 31 30 30 30 30 30 30 31 32
30 31 32 32 32 34 40 35 31 31 29 30 29 29 31 29 28 31 34 32 32 29 29 30 31 32 29 33 32 32 33 29 28 27 27 27 27 29
28 28 30 30 30 31 31 30 29 29 29 28 28 28 30 29 29 30 31 32 32 29 29 33 31 32 32 30 29 29 28 27 27 25 24 22 21 20
29 29 29 28 28 28 29 27 27 30 32 31 30 29 29 29 29 28 28 28 27 27 27 30 30 28 28 27 26 25 25 25 21 17 18 15 15 15
29 28 26 26 27 27 26 28 30 33 32 29 28 27 27 27 29 28 28 24 20 16 12 17 21 20 22 23 19 18 14 12 16 10 15 17 18 19
27 30 27 27 26 27 29 29 28 28 27 26 26 26 25 23 21 20 20 21 19 14 9 11 12 15 15 13 13 14 10 8 8 9 12 16 18 21
30 30 29 28 27 26 25 24 24 24 24 24 23 21 18 16 14 15 15 17 16 12 13 8 7 8 8 9 14 7 7 8 8 10 12 15 18 20
27 26 25 25 24 23 22 21 19 17 17 17 19 16 15 14 12 13 13 14 12 8 6 6 11 12 9 10 7 6 7 8 9 10 12 15 15 19
25 23 23 22 21 17 17 16 16 15 15 15 15 16 16 14 15 13 14 13 12 7 4 4 8 11 13 14 10 7 10 11 12 13 12 14 15 17
20 20 19 18 15 13 12 12 13 14 14 13 14 15 16 15 14 12 11 12 10 6 4 1 3 5 9 12 13 15 13 13 14 14 13 13 16 18
13 13 15 14 13 12 15 14 14 13 13 14 13 12 15 13 11 10 11 8 8 6 4 2 1 6 8 11 14 13 14 11 10 11 13 14 14 14
12 10 10 12 12 12 14 14 13 12 11 10 12 12 13 12 11 10 10 10 7 6 4 3 2 2 5 6 7 10 11 14 12 12 13 13 15 14
12 10 12 12 12 11 9 10 8 10 8 8 8 8 9 9 8 9 9 7 5 5 4 4 4 3 4 4 6 10 11 11 10 12 15 14 15 17

GFSNE_sfc_dewp_093.txt.gz
Dewpoint
59 59 58 56 57 55 54 50 50 46 45 54 52 57 57 58 56 58 58 53 49 49 49 50 51 52 53 53 54 55 55 56 57 57 58 58 59 59
58 58 57 56 57 57 54 56 55 51 47 48 52 57 57 53 54 57 58 52 49 47 47 47 48 50 50 51 51 52 53 54 55 55 56 56 57 58
56 56 56 56 56 57 59 57 56 56 52 52 53 55 56 58 56 56 56 57 56 48 47 47 46 46 46 47 48 49 50 51 52 52 53 54 55 56
55 55 55 54 55 56 58 57 57 56 55 53 53 53 53 54 55 58 56 53 54 50 48 47 46 45 45 45 45 46 46 47 47 48 49 50 51 52
52 53 52 54 55 55 56 55 56 54 54 53 52 54 55 55 55 56 56 57 55 51 48 46 46 46 45 44 44 44 44 44 44 44 44 45 46 48
53 53 52 54 54 55 55 55 54 53 53 53 53 53 54 56 55 55 55 56 56 54 52 44 44 41 41 41 41 42 42 43 44 44 43 42 41 42
51 52 53 54 50 52 55 55 55 54 55 54 54 55 55 56 56 56 55 55 55 47 50 42 41 39 38 38 38 39 39 39 40 39 39 38 38 38
54 54 54 48 48 45 46 45 48 54 55 55 55 54 54 54 52 50 49 51 49 39 43 39 38 35 35 36 36 36 36 36 36 36 36 35 35 35
50 49 54 45 43 48 45 39 36 36 37 44 48 44 41 35 37 41 44 42 41 34 38 37 35 32 33 33 34 34 34 34 34 34 34 33 33 33
37 38 39 38 36 38 43 36 33 32 33 33 33 32 32 33 34 36 37 36 34 32 33 34 33 30 32 32 32 32 31 31 31 31 31 31 31 32
32 33 33 33 34 36 39 33 32 31 32 32 32 31 31 31 32 39 35 36 35 31 31 33 32 30 31 32 32 29 29 29 29 29 29 28 28 29
31 31 32 32 33 36 35 32 29 29 30 30 30 31 31 31 30 32 34 34 34 33 32 32 33 33 32 33 34 33 33 28 28 26 26 24 23 23
29 29 31 31 32 32 32 30 29 30 30 31 31 32 33 32 31 31 32 30 32 29 29 32 31 32 32 31 31 30 30 29 28 26 26 20 19 18
29 29 30 29 30 30 31 30 30 32 33 33 32 29 28 29 30 30 31 30 27 26 25 29 29 27 28 29 30 28 27 25 22 17 16 17 20 20
30 29 28 28 29 28 28 29 30 32 32 30 28 27 29 28 31 29 28 25 21 16 12 15 19 18 21 20 17 16 15 14 16 14 17 19 20 23
30 31 29 28 28 28 30 30 30 29 28 27 27 27 26 24 21 21 21 20 20 16 13 13 13 14 15 14 13 15 12 9 11 12 15 19 21 24
32 31 30 29 28 27 26 25 24 24 23 24 23 22 19 17 15 16 16 18 17 13 12 9 11 13 10 8 12 9 8 9 10 12 14 17 22 24
28 27 26 27 25 23 23 21 20 18 18 18 19 18 17 16 15 14 15 16 14 10 8 6 11 12 13 12 11 8 8 9 11 12 14 17 17 21
24 24 24 23 21 18 18 17 17 16 16 16 17 17 17 16 16 14 14 15 14 9 6 5 7 10 11 14 13 12 13 13 13 14 13 15 17 19
20 20 19 18 16 14 14 14 14 15 15 15 16 16 17 16 15 13 13 13 10 9 6 4 4 5 7 11 13 16 17 14 15 15 14 15 17 19
14 14 16 15 14 14 17 16 15 15 14 15 15 14 16 14 12 11 12 12 11 8 6 4 3 9 7 11 15 13 14 15 12 14 14 15 15 15
14 12 12 13 14 14 16 15 15 13 12 12 13 14 13 13 12 11 11 10 8 7 5 4 4 4 6 6 7 12 11 16 15 16 18 17 17 14
14 12 13 13 13 13 12 12 10 11 10 10 10 9 11 11 9 10 10 8 7 6 5 5 5 5 5 6 8 10 12 14 12 13 16 19 19 20

GFSNE_sfc_dewp_096.txt.gz
Dewpoint
58 58 57 57 56 56 55 53 50 47 46 54 54 56 57 57 56 56 56 52 49 49 49 50 52 53 53 54 54 55 56 56 57 57 58 58 59 59
58 57 57 56 56 56 56 56 55 51 48 50 53 56 57 58 56 57 58 53 49 47 47 48 49 50 51 51 52 52 53 54 55 55 56 56 57 58
58 57 56 56 56 56 56 56 55 54 51 51 52 54 55 56 56 55 56 56 56 49 47 47 47 47 47 47 48 49 50 51 52 52 53 54 55 56
56 56 56 57 56 54 56 55 55 55 53 51 52 52 53 54 55 56 55 54 55 51 48 47 47 46 46 44 44 45 45 46 47 48 49 49 50 50
55 55 55 55 54 54 54 56 55 54 55 52 52 53 52 53 54 54 54 54 54 52 48 43 42 42 42 41 42 43 43 43 43 44 44 44 45 46
54 53 53 54 53 54 55 55 54 54 54 53 52 52 51 51 53 53 53 55 55 56 45 43 41 40 40 40 40 40 40 41 40 40 39 38 39 41
54 54 54 51 48 51 53 54 54 54 53 52 52 51 51 52 53 55 55 55 46 43 49 41 39 37 37 38 38 38 38 38 38 38 37 37 36 37
52 52 52 47 48 45 43 38 42 52 54 53 53 53 53 45 44 45 45 46 46 38 41 39 37 34 34 35 36 36 36 35 35 35 35 35 34 34
50 50 49 43 43 46 37 35 35 35 36 45 48 38 40 35 36 40 42 41 41 34 37 34 34 32 34 34 34 34 33 33 33 32 32 32 32 32
36 38 39 38 36 43 36 33 32 32 33 33 33 32 32 33 34 37 37 35 33 32 32 33 32 30 32 33 32 31 31 30 30 30 29 28 27 28
32 34 34 34 35 40 35 32 30 30 33 33 33 32 32 32 33 37 34 34 32 30 30 31 31 29 30 30 31 30 29 29 28 27 26 25 24 23
31 31 33 33 36 35 33 31 29 29 30 30 31 31 31 30 30 30 31 32 32 30 27 30 31 32 31 32 32 32 30 29 29 29 26 23 21 20
29 30 31 32 32 33 32 31 29 31 31 31 31 30 29 29 26 26 26 27 29 26 27 30 30 30 31 30 32 29 25 25 25 25 28 25 21 21
28 29 30 31 31 32 31 32 32 32 31 29 28 27 27 29 24 24 23 23 22 22 22 24 25 25 25 26 28 29 26 23 22 18 18 20 21 21
29 30 30 29 29 28 29 29 29 30 29 27 27 27 27 23 25 26 27 24 20 18 15 17 20 19 21 21 19 19 18 15 18 16 18 20 20 21
29 29 28 27 27 27 27 28 27 27 27 27 27 25 24 23 21 23 22 23 23 21 17 16 16 17 18 16 15 19 16 14 15 16 16 19 20 21
28 28 27 26 25 24 22 21 21 22 21 21 21 21 20 20 19 20 21 21 19 17 18 14 14 16 18 11 17 14 12 13 14 14 15 16 19 20
26 25 24 23 22 21 20 18 18 17 19 19 18 19 19 18 18 18 18 18 17 15 14 12 16 15 14 16 16 15 14 14 15 15 15 15 14 17
23 22 21 20 18 17 17 16 16 16 18 16 16 16 17 18 17 16 16 14 13 12 11 12 14 11 6 3 14 14 14 16 16 15 16 14 14 15
19 18 18 18 16 16 15 15 14 14 14 15 12 12 13 15 13 13 14 9 12 11 11 9 10 10 5 0 4 11 18 16 14 12 14 14 15 18
14 15 16 16 16 15 16 16 11 9 9 7 11 11 8 13 10 11 11 8 8 10 8 7 7 11 12 13 4 8 14 16 16 14 15 14 13 14
15 14 14 14 14 15 13 11 12 9 9 11 7 5 5 9 5 7 8 6 10 10 7 7 6 7 9 10 8 4 11 13 16 18 18 19 17 13
14 13 13 12 12 11 13 10 9 9 8 7 7 7 3 8 8 7 7 8 8 8 7 5 6 7 8 9 9 11 10 9 16 12 13 16 17 20

GFSNE_sfc_dewp_102.txt.gz
Dewpoint
59 59 58 56 54 54 52 51 49 48 49 52 52 53 54 54 53 54 54 51 48 48 49 50 52 53 53 54 55 56 56 57 58 58 58 58 59 59
59 58 58 57 57 56 55 53 51 49 48 51 53 55 55 55 54 54 54 51 48 47 47 48 49 50 51 52 52 53 54 54 55 56 56 56 55 56
59 58 57 58 57 57 56 55 54 52 50 50 53 55 56 56 56 56 56 55 54 47 47 47 47 47 48 48 48 49 50 50 51 51 52 52 53 53
58 58 58 58 56 56 56 55 54 53 52 50 51 53 54 56 56 56 57 58 57 50 48 48 47 46 44 44 44 44 45 46 46 46 46 47 48 49
58 58 57 57 56 56 55 55 55 54 52 52 51 53 54 55 54 54 54 55 50 44 42 41 42 42 42 42 42 43 42 41 41 40 41 41 42 43
58 58 58 57 56 56 55 55 55 54 53 52 51 52 52 53 53 51 52 54 49 43 41 40 40 41 40 40 41 41 40 40 39 38 37 37 37 38
58 58 58 55 50 53 56 55 55 54 53 52 51 51 51 51 51 51 51 50 43 44 42 40 39 38 38 38 39 38 38 38 37 36 36 35 35 34
56 56 54 49 48 45 43 40 48 54 53 52 51 50 50 49 48 49 49 48 43 37 41 35 36 35 36 37 37 36 36 35 34 33 32 30 30 31
51 53 49 46 45 40 36 36 35 35 37 51 51 47 45 41 42 43 44 43 37 33 37 32 34 32 34 36 35 34 33 33 32 30 28 25 25 25
38 41 44 43 42 41 36 34 33 33 33 34 34 32 33 34 38 39 39 32 32 32 33 31 32 30 32 33 33 32 31 30 29 28 27 25 24 24
35 36 38 38 37 38 34 32 31 31 33 33 33 33 33 34 36 37 34 34 31 28 30 32 31 30 30 31 32 32 30 29 28 28 27 25 24 23
32 33 34 34 35 35 33 32 30 30 30 30 29 29 29 31 31 32 34 33 30 27 29 30 31 31 29 29 29 24 24 30 31 31 30 28 25 19
31 31 32 33 34 33 32 32 30 31 30 30 29 29 27 26 25 27 29 30 26 23 24 29 26 26 24 26 27 23 23 23 23 20 21 20 19 18
29 31 32 33 32 32 31 32 31 30 29 28 27 26 27 26 25 24 25 24 23 21 21 22 18 18 18 18 20 21 19 18 17 16 17 17 18 19
27 28 28 28 27 27 28 29 29 29 27 25 23 22 23 25 26 26 24 22 20 19 16 19 20 19 20 18 16 16 14 15 16 16 17 18 18 19
26 25 25 25 24 24 24 25 24 24 23 21 20 22 22 21 21 22 22 23 18 16 14 17 16 18 18 15 16 16 14 13 14 16 17 18 19 19
26 25 22 21 21 21 20 20 21 20 20 20 20 20 20 19 17 18 17 17 16 15 14 13 13 17 18 16 16 14 14 13 14 16 16 16 17 18
22 20 19 19 18 17 17 17 18 17 18 18 18 18 17 17 15 15 15 15 14 13 10 8 11 11 9 10 13 13 13 14 15 17 14 14 14 16
19 18 18 17 17 17 17 16 16 16 16 15 15 16 17 16 16 14 13 14 14 12 10 10 11 11 5 4 8 12 13 13 16 14 13 14 14 15
18 17 17 17 17 16 15 14 14 14 13 12 11 11 13 13 13 12 11 11 12 9 8 8 7 9 8 3 3 10 15 14 12 10 13 16 15 16
14 14 15 14 14 13 12 11 11 10 9 8 8 8 9 11 10 10 10 9 9 8 6 5 5 11 12 12 4 5 11 14 15 14 12 9 9 9
11 11 11 11 12 11 11 9 7 7 6 6 5 4 4 7 5 6 6 5 8 7 5 5 3 5 6 6 5 1 9 8 13 9 9 9 8 7
9 9 8 8 9 8 6 3 2 1 1 1 2 3 -0 2 4 4 4 6 5 6 5 3 4 4 4 5 5 4 5 5 4 4 6 9 10 11

GFSNE_sfc_dewp_105.txt.gz
Dewpoint
59 59 58 57 56 55 52 52 50 49 50 51 52 54 55 55 54 55 54 51 49 48 49 50 52 53 53 54 55 56 57 58 58 59 58 59 59 59
60 59 59 58 56 54 55 53 52 50 48 51 52 53 54 55 54 54 54 52 48 47 47 48 49 50 51 51 52 53 53 54 55 56 56 57 56 56
59 59 58 58 56 55 55 55 53 52 49 51 53 54 54 54 54 54 54 54 53 47 46 46 46 46 47 48 49 50 50 51 52 52 52 52 52 53
59 58 58 58 57 56 55 54 53 53 51 50 52 53 54 55 55 55 55 55 56 48 47 46 46 45 44 44 44 45 45 45 45 46 46 47 47 48
58 58 58 58 57 56 56 55 55 53 52 52 52 53 54 55 54 55 56 51 46 44 42 42 42 42 42 42 43 42 42 41 41 40 40 40 41 42
59 59 58 58 57 56 55 55 55 54 53 52 52 52 53 54 54 53 53 53 46 42 41 40 41 41 41 41 41 41 40 39 39 38 37 37 37 37
58 58 58 56 52 54 55 55 55 54 53 52 51 51 52 51 52 52 52 48 43 43 41 40 39 38 39 39 39 39 39 38 38 37 36 35 34 35
56 57 58 51 49 46 47 47 52 54 53 52 51 50 50 51 50 51 50 46 43 39 39 35 36 35 37 37 38 37 37 36 34 32 29 28 28 28
47 53 51 46 44 41 37 37 35 36 42 53 52 50 49 48 47 45 46 46 40 34 37 32 34 32 35 36 36 35 35 33 31 29 27 26 26 25
38 40 45 44 43 41 38 35 33 33 34 36 40 36 35 38 43 43 41 32 32 32 34 31 32 30 33 34 34 33 32 31 30 29 26 25 25 24
34 36 37 38 37 40 37 33 32 32 34 35 34 34 35 36 37 38 34 35 30 29 30 32 31 30 31 31 32 33 31 30 30 29 28 27 25 21
33 32 34 34 35 35 34 33 31 30 31 31 30 29 29 31 32 33 35 33 30 28 29 31 31 30 28 31 31 30 29 30 30 28 30 25 21 19
31 31 32 33 34 34 33 32 30 31 30 29 28 27 26 25 26 28 29 31 27 24 26 30 28 28 29 29 30 27 27 22 20 17 19 19 19 19
28 29 30 31 31 31 30 31 30 29 28 27 26 26 24 23 24 25 25 25 25 25 26 27 23 23 22 22 20 19 18 18 18 15 17 17 17 18
27 27 27 28 28 27 27 27 27 26 25 23 22 23 25 26 26 25 24 19 18 16 14 19 21 19 21 19 16 15 17 15 16 16 17 18 18 20
25 25 25 25 23 24 24 24 24 24 23 22 22 23 24 23 22 23 20 18 16 14 13 18 19 20 18 16 16 14 14 12 15 16 17 19 19 21
23 22 21 20 20 20 20 21 21 21 21 22 21 20 19 18 17 18 17 16 16 13 12 10 13 17 18 16 14 11 12 13 14 16 16 16 18 19
20 18 17 17 17 17 17 17 17 17 17 18 18 18 17 16 16 16 17 16 14 13 13 14 15 14 9 9 13 12 12 13 14 15 13 14 14 17
17 17 16 16 16 16 16 15 14 15 16 15 15 17 17 17 16 15 16 17 15 13 11 9 10 11 7 7 10 16 14 15 15 13 14 14 13 14
16 15 15 15 15 14 14 13 12 12 12 12 12 12 14 14 14 13 13 13 12 9 7 5 6 7 9 5 5 11 13 13 13 10 11 12 11 12
12 12 13 13 12 11 10 9 9 8 8 8 8 9 9 11 10 10 11 10 10 7 5 3 3 11 11 11 3 4 10 13 13 8 9 7 7 7
10 9 10 10 10 9 8 7 6 5 6 6 4 4 6 7 7 7 8 8 7 7 2 2 3 4 7 6 5 -0 7 8 8 7 7 8 5 4
6 7 6 7 7 5 4 0 -2 -2 -0 1 2 1 -2 2 4 5 5 6 6 5 4 3 4 4 4 4 4 3 3 1 2 2 4 7 8 10

GFSNE_sfc_dewp_108.txt.gz
Dewpoint
60 60 59 59 58 57 55 55 53 51 51 53 53 56 56 56 55 56 56 51 49 49 49 51 52 53 54 55 55 57 58 59 60 60 60 60 60 59
60 60 59 59 58 57 56 56 55 54 50 52 53 55 55 56 55 56 55 52 49 48 47 48 49 51 52 52 52 53 54 55 55 56 56 57 57 57
59 59 58 59 58 57 56 55 55 53 50 52 53 54 55 55 55 55 55 55 54 47 47 47 46 47 47 48 49 50 51 51 52 53 53 52 52 53
58 58 58 59 58 57 56 55 55 54 52 50 52 53 53 55 55 54 55 55 53 46 46 46 46 45 45 45 45 46 46 47 47 47 48 48 49 49
58 58 58 58 58 57 55 55 54 54 54 52 52 53 54 55 54 55 55 48 45 44 43 43 43 43 43 43 43 43 43 43 42 42 42 43 43 44
57 58 58 58 58 57 56 55 54 54 53 52 52 52 53 54 55 54 52 49 44 42 41 41 42 42 42 41 41 41 41 40 39 38 38 38 38 38
56 57 57 57 53 55 57 56 55 54 53 53 52 52 52 53 53 54 52 48 44 42 40 40 39 40 40 40 40 40 39 39 38 37 36 34 34 35
51 56 58 52 50 47 47 49 53 54 53 53 52 52 52 53 52 53 49 46 44 42 39 35 37 36 37 38 38 38 37 35 33 31 29 30 29 29
42 44 50 50 50 48 39 39 38 39 47 53 53 52 51 51 51 50 49 47 44 37 37 32 35 33 36 37 37 36 35 33 31 28 28 27 26 26
36 39 42 40 39 43 40 35 34 34 35 38 45 38 37 44 50 49 47 34 33 33 35 31 32 31 34 35 35 34 33 32 30 27 27 27 25 23
34 35 36 36 37 39 36 33 32 32 34 34 34 34 34 35 38 41 37 38 32 31 32 31 31 30 31 32 33 34 32 32 32 31 29 27 23 21
32 32 34 34 35 36 35 34 33 32 32 31 31 30 31 31 32 33 36 39 31 30 30 31 30 30 28 31 31 31 31 32 32 32 25 22 21 18
29 30 31 32 33 33 33 33 32 32 30 29 27 27 26 27 27 28 29 32 29 26 28 31 30 30 30 28 25 25 26 24 22 17 19 19 19 17
27 28 29 30 30 30 29 30 30 30 28 26 25 24 23 24 25 25 25 25 26 26 28 29 26 27 27 25 20 22 20 18 17 14 15 16 18 19
26 26 26 26 26 26 26 26 26 26 25 23 23 23 24 25 24 22 20 18 18 22 24 25 26 26 25 23 18 15 14 14 16 15 17 18 18 19
24 23 23 23 22 22 22 23 24 24 23 22 22 23 24 24 23 23 20 16 14 12 14 20 21 19 18 17 14 13 14 12 15 15 16 18 19 20
22 21 20 20 19 19 19 19 20 21 21 22 21 21 21 21 21 21 20 19 16 15 16 14 14 16 17 14 13 12 14 14 16 16 14 13 16 17
19 17 17 17 17 17 16 16 17 17 19 20 20 19 18 18 18 19 18 17 15 14 14 15 16 13 13 15 17 14 14 13 12 12 13 13 12 14
16 15 15 14 14 15 14 14 13 15 16 16 17 17 18 17 17 17 17 16 15 13 12 13 13 13 11 10 12 15 13 12 13 13 12 10 10 12
14 13 13 13 12 12 11 11 11 12 12 13 13 14 15 14 14 13 14 14 12 9 7 6 6 8 9 10 11 12 13 13 12 9 8 7 8 10
11 10 11 11 10 8 9 9 8 8 8 8 9 10 11 11 11 11 11 10 10 7 4 2 3 10 10 10 8 7 9 11 8 6 7 7 7 6
8 7 7 6 7 6 5 6 6 6 6 5 5 5 7 8 8 8 9 8 6 5 2 3 3 5 7 6 4 4 5 7 6 6 6 6 8 5
2 5 4 3 4 2 1 -1 -2 -1 1 1 2 2 0 3 4 5 6 6 4 4 3 2 1 3 3 2 2 3 1 2 2 1 3 4 7 8

GFSNE_sfc_dewp_111.txt.gz
Dewpoint
62 62 61 61 60 60 59 57 56 52 52 55 55 57 58 58 57 58 57 52 49 49 49 51 52 54 54 55 56 57 58 59 59 60 60 61 61 61
62 61 61 61 61 60 60 58 58 55 52 54 55 56 57 57 55 58 57 53 49 48 48 49 50 51 52 52 53 54 55 56 57 58 58 58 59 58
61 61 61 61 60 60 60 59 57 56 54 55 55 56 56 56 56 57 57 57 55 48 47 47 47 48 49 49 50 51 52 52 53 54 54 55 55 56
60 60 59 59 59 59 58 57 57 56 56 54 54 55 55 57 57 57 57 56 56 49 47 46 46 46 46 46 46 47 48 48 49 50 50 51 52 52
59 59 59 59 58 58 58 57 56 55 55 54 52 54 55 55 55 56 57 56 52 45 44 44 45 45 45 44 45 45 45 44 44 44 44 45 46 47
57 57 57 57 58 58 58 58 57 55 55 54 53 53 54 55 55 54 51 51 48 44 43 43 43 43 43 42 42 42 42 41 41 40 39 39 39 41
54 55 56 56 51 54 57 57 56 55 55 54 53 53 53 53 53 54 52 48 46 45 43 43 43 43 42 41 41 41 40 39 39 38 37 37 37 37
49 49 51 50 50 46 46 48 54 55 54 53 53 52 52 53 54 54 49 46 44 43 41 38 40 39 40 40 39 39 38 37 36 34 33 33 34 33
41 42 44 45 42 46 41 40 41 43 49 54 53 53 53 53 54 53 50 49 48 42 39 35 36 35 37 38 37 36 34 32 31 30 29 28 27 27
35 37 39 39 40 41 38 35 34 34 35 39 50 43 42 53 54 53 51 39 35 34 37 32 33 32 35 37 36 35 32 31 30 29 27 27 25 24
32 33 34 36 36 38 36 33 33 32 34 35 35 34 34 35 40 46 42 42 33 33 33 32 32 31 32 32 34 34 33 31 30 30 30 26 22 21
30 31 32 33 34 34 37 35 33 32 33 33 32 32 32 32 33 33 41 45 33 32 32 32 31 31 27 31 32 33 33 33 32 32 29 27 19 17
26 27 29 30 31 32 31 32 31 32 32 32 31 30 28 27 27 28 30 34 32 28 29 33 32 32 30 26 24 26 27 27 27 27 23 20 19 17
24 25 26 27 28 28 28 29 29 29 29 27 25 24 23 23 24 25 26 26 27 27 29 31 29 30 27 23 19 23 24 26 24 18 16 18 19 19
26 26 25 25 24 24 25 25 26 26 25 23 23 23 24 25 25 24 25 25 25 26 28 29 28 29 28 23 20 21 21 22 19 16 17 17 17 19
24 25 25 24 23 22 22 23 23 24 23 22 22 23 24 24 23 24 22 23 21 21 24 26 27 26 25 25 24 22 20 15 16 16 17 18 19 21
24 23 22 22 21 21 20 20 21 22 21 22 22 22 22 21 21 22 22 21 19 19 19 20 21 21 21 18 17 16 16 17 19 17 15 16 18 19
21 20 20 19 18 18 17 18 19 19 21 22 21 21 21 21 20 20 20 19 17 16 17 19 20 19 18 18 21 17 16 15 12 12 12 14 12 14
19 18 18 17 16 15 15 15 15 17 19 19 19 20 20 20 20 19 18 17 15 14 13 14 15 17 16 14 13 15 14 12 13 13 10 9 11 12
15 15 15 15 14 13 13 13 13 14 15 16 17 18 19 19 18 18 17 16 13 9 7 6 8 10 13 14 14 13 14 14 13 12 10 8 8 9
11 11 12 12 11 10 12 13 13 12 13 14 13 14 16 14 14 14 13 12 11 6 4 2 4 10 11 13 13 10 11 8 7 7 8 9 9 8
10 9 8 8 9 9 11 12 12 11 11 11 12 13 14 14 12 12 12 10 7 6 2 2 4 5 7 7 6 7 7 9 5 3 4 7 11 10
9 9 9 9 9 7 6 8 8 9 8 9 9 10 12 11 10 10 10 8 5 5 3 2 2 3 1 2 4 5 2 4 3 3 8 2 6 8

GFSNE_sfc_dewp_114.txt.gz
Dewpoint
64 65 63 62 61 61 60 58 57 55 54 56 56 59 59 60 59 58 58 51 49 48 50 51 53 54 55 55 55 56 57 57 57 58 59 60 60 61
63 63 63 62 62 62 61 60 59 58 55 55 55 57 59 59 58 59 59 53 49 48 47 48 50 52 52 53 53 54 55 56 57 57 58 59 60 61
62 62 62 62 61 61 61 61 60 59 56 56 56 58 58 58 58 58 58 59 56 48 47 47 48 48 49 50 50 51 52 53 54 55 57 58 58 59
61 61 61 61 61 61 61 60 60 59 58 55 57 57 57 58 58 57 57 57 57 50 48 47 47 47 47 47 48 48 49 49 50 52 52 53 55 55
60 60 60 59 60 60 60 59 59 58 58 56 55 57 57 58 57 57 57 57 56 48 46 46 46 46 46 46 46 47 47 47 47 47 47 48 49 50
58 59 58 57 57 58 58 58 57 57 57 56 56 55 55 56 56 55 55 56 51 50 45 46 46 45 45 45 45 45 45 44 43 43 42 41 42 44
55 55 55 52 46 46 52 57 58 57 57 55 55 54 53 53 53 55 54 50 47 47 45 45 46 45 44 43 44 43 42 41 41 41 40 39 39 39
45 45 47 48 47 42 42 41 45 55 56 55 54 54 53 53 54 54 53 46 44 45 43 40 44 43 43 43 41 40 40 39 39 39 38 38 37 36
37 37 39 41 42 43 43 40 38 36 37 46 55 54 53 53 54 53 52 49 49 43 41 35 39 37 40 39 39 38 38 37 36 36 35 33 31 29
33 32 35 36 37 38 42 39 36 35 34 37 37 40 45 54 54 54 52 45 39 40 38 33 35 34 36 37 36 35 35 33 32 32 30 29 28 27
30 30 31 33 33 36 38 37 35 34 35 35 34 34 34 35 44 54 42 41 34 34 34 33 32 32 33 33 34 34 33 32 31 31 31 30 28 25
27 28 29 30 31 32 34 35 33 32 32 33 33 33 32 32 33 35 46 45 34 33 33 33 31 31 27 32 32 32 33 33 32 32 30 29 27 23
26 25 27 28 29 29 29 30 30 31 29 29 29 29 28 27 28 30 32 33 35 32 33 34 32 32 29 26 26 30 32 32 31 30 30 29 24 21
25 26 27 27 27 27 27 27 27 27 27 25 24 24 24 24 25 26 27 28 29 29 31 32 32 31 26 23 20 25 26 27 27 26 26 26 20 18
27 28 27 27 25 25 26 25 25 25 24 22 22 23 25 26 26 26 27 27 26 26 29 32 31 29 28 23 21 22 23 25 27 26 26 22 19 20
28 29 28 28 28 27 25 26 26 26 24 23 22 24 24 23 23 24 23 24 22 22 26 28 29 29 25 25 24 24 24 22 26 25 21 19 19 22
29 29 28 27 26 26 26 26 27 26 25 25 25 24 23 22 22 23 23 23 21 21 21 23 25 26 26 27 25 25 24 24 22 18 18 19 21 22
25 24 24 24 23 23 23 24 24 24 25 25 25 25 24 23 23 23 22 21 20 20 21 23 24 22 21 21 25 22 21 19 19 17 18 19 17 17
22 22 21 21 21 20 21 21 21 22 23 23 23 23 24 23 23 21 21 20 18 18 19 20 22 23 20 16 17 23 19 20 18 16 12 11 14 15
17 17 18 18 16 16 17 17 18 20 20 20 22 22 23 22 22 20 20 19 17 16 15 16 17 20 20 18 17 16 17 17 16 14 12 10 10 10
13 12 14 14 13 13 17 17 18 18 18 19 19 19 20 18 17 17 16 14 11 7 5 4 9 14 16 17 15 14 13 7 8 8 10 10 11 10
13 11 11 12 13 13 16 16 16 16 16 16 17 19 19 16 15 14 14 12 8 7 3 4 4 6 9 9 11 11 9 10 7 5 4 7 13 14
11 11 12 12 12 12 11 13 12 14 13 13 14 14 16 15 14 14 13 10 7 6 4 4 3 3 3 6 8 7 7 6 6 6 10 6 4 7

GFSNE_sfc_dewp_117.txt.gz
Dewpoint
64 63 64 63 64 63 61 59 58 56 56 56 57 60 60 60 59 60 60 52 50 49 50 52 54 55 55 55 56 56 57 57 57 57 57 58 60 60
64 63 63 64 63 64 62 62 61 59 57 57 57 58 61 60 59 60 60 54 50 49 48 49 51 53 53 53 54 54 55 55 56 56 57 57 58 59
63 63 63 64 63 62 62 62 61 61 58 58 58 58 60 61 60 60 60 59 57 48 47 47 48 49 50 50 51 52 53 53 54 55 56 57 58 58
62 62 61 62 62 62 62 61 61 61 59 57 58 59 59 60 61 59 59 59 59 52 48 47 47 47 47 48 48 49 50 50 51 52 53 55 57 58
62 61 61 62 61 60 61 60 61 59 60 59 57 58 58 59 59 59 59 58 59 55 48 46 46 46 46 47 47 47 48 48 48 48 49 50 51 53
60 60 60 59 57 55 57 58 58 59 58 58 57 56 57 57 58 56 56 57 57 55 48 49 48 47 46 46 46 46 47 47 47 47 46 45 46 47
51 50 49 46 43 43 47 50 50 53 55 57 56 56 56 55 55 56 55 56 51 49 46 47 49 50 49 45 48 46 45 46 46 45 44 43 43 43
42 42 44 44 42 41 40 40 40 45 48 52 54 54 54 55 55 55 55 48 45 46 45 41 44 44 44 47 45 44 43 43 43 43 42 41 40 40
34 36 37 37 38 39 41 40 38 35 35 39 43 48 50 54 55 54 54 51 51 45 42 35 39 37 40 40 41 41 41 41 41 40 39 38 37 37
31 31 33 33 33 36 40 40 37 37 36 36 35 34 34 35 38 52 54 52 40 41 40 33 35 33 36 38 39 39 39 39 39 38 36 34 33 32
30 30 30 30 32 34 37 37 34 33 34 33 32 32 32 33 34 42 50 43 34 34 34 34 32 32 32 32 35 36 36 35 34 34 33 32 30 30
28 28 30 30 30 30 31 32 32 31 31 31 30 30 30 29 30 32 35 45 35 33 34 33 32 31 28 32 32 32 32 33 32 32 32 31 30 27
26 26 27 29 29 29 29 28 28 30 28 28 27 28 28 28 28 28 30 32 35 32 34 34 33 32 30 27 30 31 31 31 31 30 31 31 31 30
28 29 29 29 28 28 27 28 26 26 27 25 24 23 24 24 26 28 28 28 30 32 32 33 33 31 27 25 22 27 28 28 28 26 27 28 28 28
30 29 28 28 28 28 28 27 28 27 25 23 23 23 24 25 26 26 27 28 27 27 31 32 31 30 28 25 23 23 23 26 27 25 26 26 26 26
31 31 30 29 28 29 29 29 31 30 28 26 25 26 26 25 24 25 25 25 23 23 26 29 30 28 25 25 24 23 24 23 26 27 28 28 28 27
29 29 27 27 26 26 27 26 27 27 27 28 27 26 26 25 25 25 24 24 22 21 22 24 25 27 28 27 23 25 25 25 27 27 27 25 26 27
24 24 24 25 24 23 24 24 24 23 25 26 25 25 25 25 24 25 24 23 22 22 23 26 26 24 23 23 27 24 23 22 23 24 25 24 24 26
21 21 22 22 20 19 20 21 21 23 24 23 23 23 25 23 24 23 23 21 20 20 21 23 25 24 20 14 20 24 21 22 22 22 22 22 23 21
15 15 16 16 15 14 16 16 17 19 21 22 22 24 24 23 22 22 21 21 19 19 18 19 19 22 20 18 17 17 23 22 23 20 17 14 13 13
12 12 14 14 13 12 17 17 19 18 18 19 20 21 22 21 20 20 19 17 17 15 14 14 17 23 21 20 16 15 14 10 12 14 12 13 14 13
12 10 11 12 13 13 15 16 16 16 16 16 18 19 20 18 17 16 15 14 9 8 5 6 7 10 15 16 14 14 13 13 7 5 6 9 15 15
11 10 12 12 11 12 10 13 12 13 14 14 13 15 17 16 15 15 14 11 9 7 6 5 5 6 7 9 11 10 11 10 8 10 10 7 5 7

GFSNE_sfc_dewp_123.txt.gz
Dewpoint
61 63 62 61 61 61 61 59 56 52 55 57 58 61 62 62 60 60 60 55 51 50 51 52 54 55 56 57 57 57 57 57 57 57 57 58 58 59
62 62 62 61 61 62 61 60 58 55 52 57 57 60 62 62 60 60 60 55 50 49 49 50 51 53 54 55 55 55 56 56 56 56 56 56 57 57
62 62 61 61 61 62 62 61 59 58 56 57 58 59 59 60 59 59 59 59 59 49 48 48 48 50 51 52 53 54 54 54 55 55 55 55 56 56
61 62 61 61 61 62 61 60 60 59 57 56 57 57 57 58 59 58 59 60 59 54 48 48 48 47 48 49 50 50 51 51 52 52 53 53 54 54
61 61 61 61 61 61 59 59 58 58 57 57 57 58 58 57 57 57 58 58 59 55 49 47 47 47 47 48 49 49 50 50 49 49 50 50 50 52
56 55 52 53 57 59 60 59 57 57 56 57 56 56 56 57 57 57 57 59 58 58 55 51 49 47 47 47 47 48 49 49 49 48 48 46 46 48
43 40 40 41 41 43 50 50 52 51 51 52 52 53 54 54 53 55 55 54 57 58 57 57 54 52 51 47 49 47 48 48 48 49 48 47 46 46
37 36 36 38 41 39 37 37 37 45 46 47 48 49 50 46 42 43 47 52 52 51 56 55 51 55 54 54 48 46 45 46 47 48 48 47 46 45
32 33 34 35 38 41 37 36 35 35 34 39 41 37 37 35 35 37 41 42 45 46 47 52 41 43 38 40 40 41 43 44 45 46 47 46 45 44
30 30 30 31 34 37 35 33 31 32 32 32 32 31 31 32 32 33 34 35 37 40 43 42 34 33 34 35 38 40 41 42 43 44 45 45 44 43
30 31 30 30 31 32 31 30 29 28 31 32 31 31 30 30 30 31 31 31 34 35 34 35 32 32 32 32 33 36 37 39 41 42 43 43 41 38
30 30 32 31 32 30 28 27 25 26 27 27 27 27 28 28 29 28 28 28 30 34 33 34 32 32 30 31 31 32 33 35 36 38 40 41 39 36
28 28 30 30 29 29 30 29 27 27 27 26 26 26 26 26 27 28 28 26 26 30 32 33 32 32 30 28 29 30 31 31 31 32 33 33 34 34
26 27 27 27 27 26 26 27 27 28 28 27 26 25 25 25 26 27 28 28 28 26 28 31 32 32 28 26 25 28 27 27 29 29 30 31 31 31
24 24 24 23 23 24 23 24 24 25 25 25 25 25 26 26 26 26 27 28 27 27 27 29 31 32 31 27 25 24 23 25 26 26 26 26 27 27
22 21 21 22 21 20 21 21 22 23 23 23 23 25 25 25 23 23 21 22 22 23 26 26 28 29 27 28 25 23 23 21 25 25 25 26 26 27
18 18 17 17 16 17 18 19 19 20 21 22 22 23 23 23 22 22 21 19 18 19 20 24 26 26 26 26 23 23 23 23 25 25 25 24 26 26
15 13 13 14 14 15 15 16 17 17 19 19 21 21 21 20 20 20 20 18 17 17 17 20 23 21 21 22 27 23 24 24 25 26 25 22 22 24
12 12 10 11 12 12 14 13 15 15 16 17 17 18 19 21 19 18 18 18 17 17 17 19 20 17 14 12 19 26 22 24 24 23 24 24 20 22
10 11 10 9 9 9 10 11 12 12 11 13 14 14 16 19 17 18 17 16 17 17 16 17 17 17 14 11 11 15 26 22 21 20 20 22 24 25
7 7 10 9 8 8 8 7 9 8 6 6 8 10 13 15 15 14 13 13 15 16 14 15 19 22 21 20 12 13 15 24 24 21 20 18 18 18
4 6 8 7 5 6 7 4 5 4 5 4 4 6 9 13 12 13 10 7 12 15 16 17 20 21 19 16 13 12 13 15 18 22 20 19 19 15
-2 1 -1 -3 -3 -1 5 1 -1 -3 -2 -0 2 5 7 10 13 11 13 10 9 10 11 13 16 19 18 16 15 14 13 14 11 11 14 8 8 9